GFSNIL_prec_precacc24_027.txt.gz
Total_Precipitation_Accumulation
0.00 0.00 0.00 0.00 0.00 0.00 0.00 0.00 0.00 0.00 0.00 0.00 0.01 0.02 0.07 0.12 0.18 0.31 0.42 0.46 0.46 0.43
0.00 0.00 0.00 0.00 0.00 0.00 0.00 0.00 0.00 0.00 0.01 0.04 0.10 0.15 0.19 0.21 0.27 0.30 0.25 0.21 0.18 0.16
0.00 0.00 0.00 0.00 0.00 0.00 0.00 0.00 0.01 0.04 0.12 0.18 0.17 0.12 0.11 0.10 0.09 0.09 0.08 0.06 0.05 0.04
0.00 0.00 0.00 0.00 0.00 0.00 0.00 0.01 0.05 0.09 0.08 0.06 0.07 0.06 0.04 0.03 0.02 0.01 0.01 0.01 0.01 0.00
0.00 0.00 0.00 0.00 0.00 0.00 0.00 0.00 0.01 0.02 0.07 0.09 0.05 0.02 0.02 0.02 0.00 0.00 0.00 0.00 0.00 0.00
0.00 0.00 0.00 0.00 0.00 0.00 0.01 0.03 0.06 0.10 0.06 0.02 0.00 0.00 0.00 0.00 0.00 0.00 0.00 0.00 0.00 0.00
0.00 0.00 0.01 0.01 0.01 0.03 0.04 0.05 0.06 0.04 0.01 0.00 0.00 0.00 0.00 0.00 0.00 0.00 0.00 0.00 0.00 0.00
0.01 0.01 0.03 0.05 0.04 0.06 0.06 0.04 0.02 0.01 0.00 0.00 0.00 0.00 0.00 0.00 0.00 0.00 0.00 0.00 0.00 0.00
0.07 0.15 0.21 0.18 0.10 0.04 0.02 0.01 0.00 0.00 0.00 0.00 0.00 0.00 0.00 0.00 0.00 0.00 0.00 0.00 0.00 0.00
0.11 0.14 0.08 0.01 0.00 0.00 0.00 0.00 0.00 0.00 0.00 0.00 0.00 0.00 0.00 0.00 0.00 0.00 0.00 0.00 0.00 0.00
0.00 0.00 0.00 0.00 0.00 0.00 0.00 0.00 0.00 0.00 0.00 0.00 0.00 0.00 0.00 0.00 0.00 0.00 0.00 0.00 0.00 0.00
0.00 0.00 0.00 0.00 0.00 0.00 0.00 0.00 0.00 0.00 0.00 0.00 0.00 0.00 0.00 0.00 0.02 0.03 0.02 0.01 0.01 0.02
0.00 0.00 0.00 0.00 0.00 0.00 0.00 0.00 0.00 0.00 0.00 0.00 0.00 0.00 0.00 0.01 0.08 0.13 0.07 0.04 0.03 0.02
0.00 0.00 0.00 0.00 0.00 0.00 0.00 0.00 0.00 0.01 0.01 0.01 0.01 0.01 0.01 0.02 0.09 0.15 0.16 0.06 0.03 0.04

GFSNIL_prec_precacc24_030.txt.gz
Total_Precipitation_Accumulation
0.00 0.00 0.00 0.00 0.00 0.00 0.00 0.00 0.00 0.00 0.00 0.00 0.01 0.02 0.07 0.12 0.19 0.31 0.43 0.46 0.47 0.44
0.00 0.00 0.00 0.00 0.00 0.00 0.00 0.00 0.00 0.00 0.01 0.04 0.10 0.15 0.19 0.21 0.28 0.32 0.27 0.24 0.21 0.19
0.00 0.00 0.00 0.00 0.00 0.00 0.00 0.00 0.01 0.04 0.12 0.18 0.17 0.12 0.11 0.10 0.09 0.10 0.10 0.08 0.07 0.06
0.00 0.00 0.00 0.00 0.00 0.00 0.00 0.01 0.05 0.09 0.08 0.06 0.07 0.06 0.05 0.04 0.03 0.03 0.02 0.01 0.01 0.01
0.00 0.00 0.00 0.00 0.00 0.00 0.00 0.01 0.01 0.03 0.08 0.10 0.06 0.03 0.03 0.02 0.00 0.00 0.00 0.00 0.00 0.00
0.00 0.00 0.00 0.00 0.00 0.00 0.01 0.04 0.08 0.11 0.07 0.03 0.01 0.00 0.00 0.00 0.00 0.00 0.00 0.00 0.00 0.00
0.00 0.00 0.01 0.01 0.01 0.03 0.05 0.07 0.07 0.05 0.02 0.01 0.00 0.00 0.00 0.00 0.00 0.00 0.00 0.00 0.00 0.00
0.01 0.01 0.03 0.05 0.05 0.07 0.06 0.04 0.02 0.01 0.00 0.00 0.00 0.00 0.00 0.00 0.00 0.00 0.00 0.00 0.00 0.00
0.07 0.15 0.21 0.18 0.10 0.04 0.02 0.01 0.00 0.00 0.00 0.00 0.00 0.00 0.00 0.00 0.00 0.00 0.00 0.00 0.00 0.00
0.11 0.14 0.08 0.01 0.00 0.00 0.00 0.00 0.00 0.00 0.00 0.00 0.00 0.00 0.00 0.00 0.00 0.00 0.00 0.00 0.00 0.00
0.00 0.00 0.00 0.00 0.00 0.00 0.00 0.00 0.00 0.00 0.00 0.00 0.00 0.00 0.00 0.00 0.00 0.00 0.00 0.00 0.00 0.00
0.00 0.00 0.00 0.00 0.00 0.00 0.00 0.00 0.00 0.00 0.00 0.00 0.00 0.00 0.00 0.00 0.01 0.02 0.01 0.01 0.01 0.03
0.00 0.00 0.00 0.00 0.00 0.00 0.00 0.00 0.00 0.00 0.00 0.00 0.00 0.01 0.00 0.01 0.04 0.08 0.04 0.03 0.02 0.02
0.00 0.00 0.00 0.00 0.00 0.00 0.00 0.00 0.00 0.00 0.00 0.01 0.01 0.01 0.01 0.01 0.05 0.11 0.13 0.05 0.03 0.04

GFSNIL_prec_precacc24_033.txt.gz
Total_Precipitation_Accumulation
0.00 0.00 0.00 0.00 0.00 0.00 0.00 0.00 0.00 0.00 0.00 0.00 0.01 0.01 0.07 0.12 0.19 0.31 0.43 0.46 0.47 0.45
0.00 0.00 0.00 0.00 0.00 0.00 0.00 0.00 0.00 0.00 0.01 0.03 0.09 0.15 0.19 0.21 0.28 0.32 0.27 0.24 0.22 0.20
0.00 0.00 0.00 0.00 0.00 0.00 0.00 0.00 0.00 0.03 0.10 0.17 0.17 0.12 0.11 0.10 0.09 0.10 0.10 0.08 0.07 0.06
0.00 0.00 0.00 0.00 0.00 0.00 0.00 0.01 0.04 0.08 0.08 0.06 0.08 0.07 0.05 0.04 0.04 0.03 0.02 0.02 0.02 0.01
0.00 0.00 0.00 0.00 0.00 0.00 0.00 0.01 0.02 0.04 0.09 0.11 0.07 0.04 0.03 0.02 0.00 0.00 0.00 0.00 0.00 0.00
0.00 0.00 0.00 0.00 0.00 0.00 0.01 0.04 0.08 0.12 0.08 0.03 0.01 0.00 0.00 0.00 0.00 0.00 0.00 0.00 0.00 0.00
0.00 0.00 0.01 0.01 0.01 0.03 0.05 0.07 0.07 0.05 0.02 0.01 0.00 0.00 0.00 0.00 0.00 0.00 0.00 0.00 0.00 0.00
0.01 0.01 0.03 0.05 0.05 0.07 0.06 0.04 0.02 0.01 0.00 0.00 0.00 0.00 0.00 0.00 0.00 0.00 0.00 0.00 0.00 0.00
0.07 0.15 0.21 0.18 0.10 0.04 0.02 0.01 0.00 0.00 0.00 0.00 0.00 0.00 0.00 0.00 0.00 0.00 0.00 0.00 0.00 0.00
0.09 0.12 0.07 0.01 0.00 0.00 0.00 0.00 0.00 0.00 0.00 0.00 0.00 0.00 0.00 0.00 0.00 0.00 0.00 0.00 0.00 0.00
0.00 0.00 0.01 0.01 0.00 0.00 0.00 0.00 0.00 0.00 0.00 0.00 0.00 0.00 0.00 0.00 0.00 0.00 0.00 0.00 0.00 0.00
0.01 0.03 0.03 0.01 0.00 0.00 0.00 0.00 0.00 0.00 0.00 0.00 0.00 0.00 0.00 0.00 0.01 0.01 0.00 0.00 0.01 0.02
0.03 0.07 0.08 0.03 0.00 0.00 0.00 0.00 0.00 0.00 0.00 0.00 0.00 0.01 0.01 0.01 0.02 0.04 0.02 0.01 0.01 0.01
0.03 0.04 0.02 0.00 0.00 0.00 0.00 0.00 0.00 0.00 0.00 0.01 0.01 0.01 0.01 0.01 0.04 0.09 0.10 0.04 0.02 0.03

GFSNIL_prec_precacc24_036.txt.gz
Total_Precipitation_Accumulation
0.00 0.00 0.00 0.00 0.00 0.00 0.00 0.00 0.00 0.00 0.00 0.00 0.00 0.01 0.04 0.09 0.17 0.31 0.42 0.46 0.47 0.45
0.00 0.00 0.00 0.00 0.00 0.00 0.00 0.00 0.00 0.00 0.00 0.00 0.02 0.09 0.16 0.20 0.27 0.32 0.27 0.24 0.22 0.20
0.00 0.00 0.00 0.00 0.00 0.00 0.00 0.00 0.00 0.00 0.02 0.08 0.12 0.12 0.11 0.10 0.09 0.10 0.10 0.09 0.08 0.07
0.00 0.00 0.00 0.00 0.00 0.00 0.00 0.00 0.00 0.03 0.06 0.06 0.08 0.07 0.06 0.05 0.04 0.04 0.03 0.02 0.02 0.01
0.00 0.00 0.00 0.00 0.00 0.00 0.00 0.01 0.02 0.04 0.09 0.11 0.07 0.04 0.03 0.02 0.00 0.00 0.00 0.00 0.00 0.00
0.00 0.00 0.00 0.00 0.00 0.00 0.01 0.04 0.08 0.12 0.08 0.03 0.01 0.00 0.00 0.00 0.00 0.00 0.00 0.00 0.00 0.00
0.00 0.00 0.01 0.01 0.01 0.03 0.05 0.07 0.07 0.05 0.02 0.01 0.00 0.00 0.00 0.00 0.00 0.00 0.00 0.00 0.00 0.00
0.01 0.01 0.03 0.05 0.05 0.07 0.06 0.04 0.02 0.01 0.00 0.00 0.00 0.00 0.00 0.00 0.00 0.00 0.00 0.00 0.00 0.00
0.04 0.13 0.19 0.16 0.10 0.04 0.03 0.02 0.00 0.00 0.00 0.00 0.00 0.00 0.00 0.00 0.00 0.00 0.00 0.00 0.00 0.00
0.05 0.06 0.03 0.01 0.02 0.07 0.08 0.01 0.00 0.00 0.00 0.00 0.00 0.00 0.00 0.00 0.00 0.00 0.00 0.00 0.00 0.00
0.01 0.00 0.01 0.05 0.08 0.07 0.04 0.01 0.00 0.00 0.00 0.00 0.00 0.00 0.00 0.00 0.00 0.00 0.00 0.00 0.00 0.00
0.01 0.03 0.05 0.06 0.09 0.05 0.01 0.00 0.00 0.00 0.00 0.00 0.00 0.00 0.00 0.00 0.00 0.01 0.00 0.00 0.01 0.02
0.03 0.07 0.10 0.07 0.01 0.00 0.00 0.00 0.00 0.00 0.00 0.00 0.00 0.01 0.01 0.01 0.02 0.03 0.02 0.01 0.01 0.01
0.03 0.04 0.03 0.01 0.00 0.00 0.00 0.00 0.00 0.00 0.00 0.01 0.01 0.01 0.01 0.01 0.03 0.07 0.08 0.04 0.02 0.03

GFSNIL_prec_precacc24_039.txt.gz
Total_Precipitation_Accumulation
0.00 0.00 0.00 0.00 0.00 0.00 0.00 0.00 0.00 0.00 0.00 0.00 0.00 0.00 0.01 0.04 0.08 0.18 0.31 0.41 0.45 0.44
0.00 0.00 0.00 0.00 0.00 0.00 0.00 0.00 0.00 0.00 0.00 0.00 0.00 0.01 0.04 0.11 0.22 0.29 0.27 0.24 0.23 0.21
0.00 0.00 0.00 0.00 0.00 0.00 0.00 0.00 0.00 0.00 0.00 0.00 0.00 0.04 0.08 0.09 0.09 0.10 0.10 0.09 0.08 0.07
0.00 0.00 0.00 0.00 0.00 0.00 0.00 0.00 0.00 0.00 0.00 0.03 0.08 0.07 0.06 0.05 0.04 0.04 0.03 0.02 0.02 0.01
0.00 0.00 0.00 0.00 0.00 0.00 0.00 0.01 0.02 0.04 0.09 0.11 0.07 0.04 0.03 0.02 0.00 0.00 0.00 0.00 0.00 0.00
0.00 0.00 0.00 0.00 0.00 0.00 0.01 0.04 0.08 0.12 0.08 0.03 0.01 0.00 0.00 0.00 0.00 0.00 0.00 0.00 0.00 0.00
0.00 0.00 0.01 0.01 0.01 0.03 0.05 0.07 0.07 0.05 0.02 0.01 0.00 0.00 0.00 0.00 0.00 0.00 0.00 0.00 0.00 0.00
0.01 0.01 0.03 0.05 0.05 0.07 0.07 0.04 0.03 0.03 0.00 0.00 0.00 0.00 0.00 0.00 0.00 0.00 0.00 0.00 0.00 0.00
0.01 0.04 0.08 0.07 0.05 0.03 0.03 0.06 0.06 0.01 0.00 0.00 0.00 0.00 0.00 0.00 0.00 0.00 0.00 0.00 0.00 0.00
0.02 0.02 0.02 0.01 0.02 0.07 0.09 0.06 0.03 0.00 0.00 0.00 0.00 0.00 0.00 0.00 0.00 0.00 0.00 0.00 0.00 0.00
0.01 0.00 0.01 0.05 0.08 0.08 0.06 0.03 0.00 0.00 0.00 0.00 0.00 0.00 0.00 0.00 0.00 0.00 0.00 0.00 0.00 0.00
0.01 0.03 0.05 0.06 0.09 0.06 0.01 0.00 0.00 0.00 0.00 0.00 0.00 0.00 0.00 0.00 0.00 0.01 0.00 0.00 0.01 0.02
0.03 0.07 0.10 0.07 0.01 0.00 0.00 0.00 0.00 0.00 0.00 0.00 0.00 0.01 0.01 0.01 0.02 0.02 0.02 0.01 0.01 0.01
0.03 0.04 0.03 0.01 0.00 0.00 0.00 0.00 0.00 0.00 0.00 0.01 0.01 0.01 0.01 0.01 0.02 0.06 0.07 0.03 0.02 0.03

GFSNIL_prec_precacc24_042.txt.gz
Total_Precipitation_Accumulation
0.00 0.00 0.00 0.00 0.00 0.00 0.00 0.00 0.00 0.00 0.00 0.00 0.00 0.00 0.00 0.01 0.01 0.03 0.09 0.15 0.24 0.30
0.00 0.00 0.00 0.00 0.00 0.00 0.00 0.00 0.00 0.00 0.00 0.00 0.00 0.00 0.00 0.02 0.08 0.15 0.17 0.18 0.19 0.19
0.00 0.00 0.00 0.00 0.00 0.00 0.00 0.00 0.00 0.00 0.00 0.00 0.00 0.01 0.02 0.04 0.06 0.08 0.09 0.09 0.08 0.07
0.00 0.00 0.00 0.00 0.00 0.00 0.00 0.00 0.00 0.00 0.00 0.03 0.07 0.07 0.06 0.05 0.04 0.04 0.03 0.02 0.02 0.01
0.00 0.00 0.00 0.00 0.00 0.00 0.00 0.01 0.02 0.04 0.09 0.11 0.07 0.04 0.03 0.02 0.00 0.00 0.00 0.00 0.00 0.00
0.00 0.00 0.00 0.00 0.00 0.00 0.01 0.04 0.08 0.12 0.08 0.03 0.01 0.00 0.00 0.00 0.00 0.00 0.00 0.00 0.00 0.00
0.00 0.00 0.01 0.01 0.01 0.03 0.05 0.06 0.06 0.04 0.02 0.01 0.00 0.00 0.00 0.00 0.00 0.00 0.00 0.00 0.00 0.00
0.01 0.01 0.03 0.04 0.03 0.05 0.05 0.04 0.03 0.03 0.02 0.01 0.00 0.00 0.00 0.00 0.00 0.00 0.00 0.00 0.00 0.00
0.01 0.02 0.05 0.04 0.03 0.02 0.02 0.05 0.06 0.04 0.04 0.01 0.00 0.00 0.00 0.00 0.00 0.00 0.00 0.00 0.00 0.00
0.01 0.02 0.02 0.00 0.02 0.07 0.09 0.06 0.03 0.01 0.00 0.00 0.00 0.00 0.00 0.00 0.00 0.00 0.00 0.00 0.00 0.00
0.00 0.00 0.01 0.05 0.08 0.08 0.06 0.03 0.00 0.00 0.00 0.00 0.00 0.00 0.00 0.00 0.00 0.00 0.00 0.00 0.00 0.00
0.01 0.03 0.05 0.06 0.09 0.06 0.01 0.00 0.00 0.00 0.00 0.00 0.00 0.00 0.00 0.00 0.00 0.01 0.00 0.00 0.01 0.02
0.03 0.07 0.10 0.07 0.01 0.00 0.00 0.00 0.00 0.00 0.00 0.00 0.00 0.01 0.01 0.01 0.01 0.02 0.02 0.01 0.01 0.01
0.03 0.04 0.03 0.01 0.00 0.00 0.00 0.01 0.00 0.00 0.00 0.01 0.01 0.01 0.01 0.01 0.02 0.05 0.06 0.03 0.02 0.03

GFSNIL_prec_precacc24_045.txt.gz
Total_Precipitation_Accumulation
0.00 0.00 0.00 0.00 0.00 0.00 0.00 0.00 0.00 0.00 0.00 0.00 0.00 0.00 0.00 0.01 0.01 0.01 0.01 0.02 0.05 0.09
0.00 0.00 0.00 0.00 0.00 0.00 0.00 0.00 0.00 0.00 0.00 0.00 0.00 0.00 0.00 0.01 0.04 0.07 0.07 0.07 0.10 0.10
0.00 0.00 0.00 0.00 0.00 0.00 0.00 0.00 0.00 0.00 0.00 0.00 0.00 0.01 0.03 0.05 0.06 0.09 0.09 0.08 0.07 0.06
0.00 0.00 0.00 0.00 0.00 0.00 0.00 0.00 0.00 0.00 0.00 0.03 0.06 0.06 0.06 0.05 0.04 0.04 0.03 0.02 0.02 0.01
0.00 0.00 0.00 0.00 0.00 0.00 0.00 0.01 0.02 0.03 0.06 0.06 0.05 0.04 0.03 0.02 0.00 0.00 0.00 0.00 0.00 0.00
0.00 0.00 0.00 0.00 0.00 0.00 0.01 0.03 0.05 0.07 0.05 0.03 0.01 0.00 0.00 0.00 0.00 0.00 0.00 0.00 0.00 0.00
0.00 0.00 0.01 0.01 0.01 0.03 0.05 0.05 0.05 0.04 0.02 0.01 0.01 0.01 0.01 0.00 0.00 0.00 0.00 0.00 0.00 0.00
0.01 0.01 0.03 0.04 0.03 0.05 0.04 0.03 0.02 0.03 0.02 0.03 0.03 0.01 0.00 0.00 0.00 0.00 0.00 0.00 0.00 0.00
0.00 0.01 0.03 0.04 0.03 0.02 0.02 0.05 0.06 0.04 0.04 0.01 0.00 0.00 0.00 0.00 0.00 0.00 0.00 0.00 0.00 0.00
0.00 0.00 0.00 0.00 0.02 0.07 0.09 0.06 0.03 0.01 0.00 0.00 0.00 0.00 0.00 0.00 0.00 0.00 0.00 0.00 0.00 0.00
0.00 0.00 0.01 0.05 0.08 0.08 0.06 0.03 0.00 0.00 0.00 0.00 0.00 0.00 0.00 0.00 0.00 0.00 0.00 0.00 0.00 0.00
0.01 0.03 0.05 0.06 0.09 0.06 0.01 0.00 0.00 0.00 0.00 0.00 0.00 0.00 0.00 0.00 0.00 0.01 0.00 0.00 0.01 0.02
0.03 0.07 0.10 0.07 0.01 0.00 0.00 0.00 0.00 0.00 0.00 0.00 0.00 0.01 0.01 0.01 0.01 0.02 0.02 0.01 0.01 0.01
0.03 0.04 0.03 0.01 0.00 0.00 0.00 0.03 0.02 0.01 0.00 0.01 0.01 0.01 0.01 0.01 0.02 0.04 0.05 0.03 0.02 0.03

GFSNIL_prec_precacc24_048.txt.gz
Total_Precipitation_Accumulation
0.00 0.00 0.00 0.00 0.00 0.00 0.00 0.00 0.00 0.00 0.00 0.00 0.00 0.01 0.01 0.02 0.02 0.02 0.03 0.03 0.03 0.04
0.00 0.00 0.00 0.00 0.00 0.00 0.00 0.00 0.00 0.00 0.00 0.00 0.00 0.00 0.01 0.03 0.05 0.07 0.08 0.09 0.10 0.08
0.00 0.00 0.00 0.00 0.00 0.00 0.00 0.00 0.00 0.00 0.00 0.00 0.00 0.01 0.04 0.05 0.06 0.09 0.10 0.08 0.06 0.05
0.00 0.00 0.00 0.00 0.00 0.00 0.00 0.00 0.00 0.00 0.00 0.01 0.02 0.04 0.06 0.06 0.04 0.04 0.02 0.01 0.01 0.01
0.00 0.00 0.00 0.00 0.00 0.00 0.00 0.00 0.01 0.02 0.03 0.03 0.04 0.05 0.04 0.02 0.01 0.00 0.00 0.00 0.00 0.00
0.00 0.00 0.00 0.00 0.00 0.00 0.01 0.03 0.04 0.05 0.04 0.03 0.02 0.01 0.00 0.00 0.00 0.00 0.00 0.00 0.00 0.00
0.00 0.00 0.01 0.01 0.01 0.02 0.04 0.04 0.04 0.03 0.02 0.01 0.01 0.02 0.01 0.00 0.00 0.00 0.00 0.00 0.00 0.00
0.00 0.00 0.01 0.01 0.02 0.03 0.03 0.01 0.01 0.02 0.02 0.03 0.03 0.01 0.00 0.00 0.00 0.00 0.00 0.00 0.00 0.00
0.00 0.00 0.01 0.01 0.01 0.01 0.01 0.04 0.06 0.04 0.04 0.01 0.00 0.00 0.00 0.00 0.00 0.00 0.00 0.00 0.00 0.00
0.00 0.00 0.00 0.00 0.02 0.07 0.09 0.06 0.03 0.01 0.00 0.00 0.00 0.00 0.00 0.00 0.00 0.00 0.00 0.00 0.00 0.00
0.00 0.00 0.01 0.05 0.08 0.08 0.06 0.03 0.01 0.00 0.00 0.00 0.00 0.00 0.00 0.00 0.00 0.00 0.00 0.00 0.00 0.00
0.01 0.03 0.05 0.06 0.09 0.06 0.01 0.00 0.00 0.00 0.00 0.00 0.00 0.00 0.00 0.00 0.00 0.00 0.00 0.00 0.01 0.01
0.03 0.07 0.10 0.07 0.01 0.00 0.00 0.00 0.00 0.00 0.00 0.00 0.00 0.01 0.01 0.01 0.01 0.01 0.01 0.01 0.01 0.01
0.03 0.04 0.03 0.01 0.00 0.00 0.00 0.03 0.03 0.01 0.00 0.01 0.01 0.01 0.01 0.01 0.01 0.03 0.04 0.02 0.01 0.02

GFSNIL_prec_precacc24_051.txt.gz
Total_Precipitation_Accumulation
0.00 0.00 0.00 0.00 0.00 0.00 0.00 0.00 0.00 0.00 0.00 0.00 0.00 0.01 0.01 0.02 0.03 0.04 0.06 0.06 0.06 0.06
0.00 0.00 0.00 0.00 0.00 0.00 0.00 0.00 0.00 0.00 0.00 0.00 0.00 0.01 0.01 0.03 0.05 0.07 0.08 0.10 0.11 0.08
0.00 0.00 0.00 0.00 0.00 0.00 0.00 0.00 0.00 0.00 0.00 0.00 0.00 0.01 0.03 0.05 0.05 0.06 0.07 0.06 0.04 0.03
0.00 0.00 0.00 0.00 0.00 0.00 0.00 0.00 0.00 0.00 0.00 0.01 0.02 0.04 0.06 0.06 0.05 0.04 0.03 0.01 0.01 0.01
0.00 0.00 0.00 0.00 0.00 0.00 0.00 0.00 0.01 0.01 0.02 0.03 0.04 0.05 0.03 0.01 0.01 0.00 0.00 0.00 0.00 0.00
0.00 0.00 0.00 0.00 0.00 0.00 0.00 0.01 0.02 0.03 0.02 0.02 0.01 0.01 0.00 0.00 0.00 0.00 0.00 0.00 0.00 0.00
0.00 0.00 0.00 0.00 0.00 0.00 0.02 0.02 0.01 0.01 0.02 0.01 0.01 0.02 0.01 0.00 0.00 0.00 0.00 0.00 0.00 0.00
0.00 0.00 0.00 0.00 0.01 0.01 0.02 0.01 0.01 0.02 0.02 0.03 0.03 0.01 0.00 0.00 0.00 0.00 0.00 0.00 0.00 0.00
0.00 0.00 0.00 0.00 0.01 0.01 0.01 0.04 0.06 0.04 0.04 0.01 0.00 0.00 0.00 0.00 0.00 0.00 0.00 0.00 0.00 0.00
0.00 0.00 0.00 0.00 0.02 0.07 0.09 0.06 0.03 0.01 0.00 0.01 0.02 0.00 0.00 0.00 0.00 0.00 0.00 0.00 0.00 0.00
0.00 0.00 0.01 0.05 0.08 0.08 0.06 0.03 0.01 0.00 0.01 0.02 0.02 0.00 0.00 0.00 0.00 0.00 0.00 0.00 0.00 0.00
0.01 0.03 0.05 0.06 0.09 0.06 0.01 0.00 0.00 0.00 0.01 0.01 0.01 0.00 0.00 0.00 0.00 0.00 0.00 0.00 0.00 0.01
0.03 0.07 0.10 0.07 0.01 0.00 0.00 0.00 0.00 0.00 0.00 0.01 0.00 0.00 0.01 0.01 0.01 0.01 0.01 0.00 0.00 0.00
0.03 0.04 0.03 0.01 0.00 0.00 0.00 0.03 0.03 0.01 0.00 0.01 0.01 0.01 0.01 0.00 0.01 0.02 0.02 0.01 0.00 0.00

GFSNIL_prec_precacc24_054.txt.gz
Total_Precipitation_Accumulation
0.00 0.00 0.00 0.00 0.00 0.00 0.00 0.00 0.00 0.00 0.00 0.00 0.00 0.01 0.01 0.02 0.03 0.05 0.07 0.08 0.08 0.08
0.00 0.00 0.00 0.00 0.00 0.00 0.00 0.00 0.00 0.00 0.00 0.00 0.00 0.01 0.01 0.03 0.05 0.07 0.07 0.09 0.10 0.07
0.00 0.00 0.00 0.00 0.00 0.00 0.00 0.00 0.00 0.00 0.00 0.00 0.00 0.01 0.03 0.05 0.05 0.07 0.07 0.05 0.03 0.03
0.00 0.00 0.00 0.00 0.00 0.00 0.00 0.00 0.00 0.00 0.00 0.01 0.01 0.03 0.05 0.05 0.04 0.03 0.02 0.01 0.01 0.01
0.00 0.00 0.00 0.00 0.00 0.00 0.00 0.00 0.00 0.00 0.01 0.01 0.02 0.04 0.02 0.01 0.00 0.00 0.00 0.00 0.00 0.00
0.00 0.00 0.00 0.00 0.00 0.00 0.00 0.00 0.00 0.01 0.00 0.01 0.01 0.01 0.00 0.00 0.00 0.00 0.00 0.00 0.00 0.00
0.00 0.00 0.00 0.00 0.00 0.00 0.01 0.01 0.01 0.00 0.01 0.01 0.01 0.02 0.01 0.00 0.00 0.00 0.00 0.01 0.00 0.00
0.00 0.00 0.00 0.00 0.00 0.01 0.01 0.00 0.01 0.02 0.02 0.03 0.04 0.02 0.00 0.00 0.00 0.01 0.01 0.00 0.00 0.00
0.00 0.00 0.00 0.00 0.01 0.01 0.01 0.04 0.06 0.04 0.04 0.01 0.00 0.00 0.00 0.00 0.00 0.00 0.00 0.00 0.00 0.00
0.00 0.00 0.00 0.00 0.02 0.07 0.09 0.06 0.03 0.01 0.00 0.01 0.03 0.00 0.00 0.00 0.00 0.00 0.00 0.00 0.00 0.00
0.00 0.00 0.01 0.05 0.08 0.08 0.06 0.03 0.01 0.00 0.01 0.02 0.03 0.00 0.00 0.00 0.00 0.00 0.00 0.00 0.00 0.00
0.01 0.03 0.05 0.06 0.09 0.06 0.01 0.00 0.00 0.00 0.01 0.02 0.02 0.00 0.00 0.00 0.00 0.00 0.00 0.00 0.00 0.00
0.02 0.07 0.10 0.07 0.01 0.00 0.00 0.00 0.00 0.00 0.00 0.01 0.01 0.00 0.00 0.00 0.00 0.01 0.01 0.00 0.00 0.00
0.03 0.04 0.03 0.01 0.00 0.00 0.00 0.03 0.03 0.01 0.00 0.01 0.01 0.00 0.00 0.00 0.01 0.01 0.01 0.00 0.00 0.00

GFSNIL_prec_precacc24_057.txt.gz
Total_Precipitation_Accumulation
0.00 0.00 0.00 0.00 0.00 0.00 0.00 0.00 0.00 0.00 0.00 0.00 0.00 0.01 0.01 0.02 0.03 0.05 0.07 0.08 0.07 0.06
0.00 0.00 0.00 0.00 0.00 0.00 0.00 0.00 0.00 0.00 0.00 0.00 0.00 0.01 0.01 0.03 0.05 0.07 0.07 0.08 0.09 0.06
0.00 0.00 0.00 0.00 0.00 0.00 0.00 0.00 0.00 0.00 0.00 0.00 0.00 0.01 0.03 0.05 0.05 0.07 0.07 0.05 0.03 0.02
0.00 0.00 0.00 0.00 0.00 0.00 0.00 0.00 0.00 0.00 0.00 0.00 0.01 0.02 0.05 0.05 0.03 0.02 0.01 0.01 0.01 0.00
0.00 0.00 0.00 0.00 0.00 0.00 0.00 0.00 0.00 0.00 0.00 0.00 0.02 0.03 0.02 0.01 0.00 0.00 0.00 0.00 0.00 0.00
0.00 0.00 0.00 0.00 0.00 0.00 0.00 0.00 0.00 0.00 0.00 0.01 0.01 0.01 0.00 0.00 0.00 0.00 0.00 0.00 0.00 0.00
0.00 0.00 0.00 0.00 0.00 0.00 0.00 0.00 0.00 0.00 0.01 0.01 0.01 0.02 0.01 0.00 0.00 0.00 0.00 0.01 0.00 0.00
0.00 0.00 0.00 0.00 0.00 0.01 0.01 0.00 0.01 0.02 0.02 0.03 0.04 0.02 0.00 0.00 0.00 0.01 0.01 0.00 0.00 0.00
0.00 0.00 0.00 0.00 0.01 0.01 0.01 0.04 0.06 0.04 0.04 0.01 0.00 0.00 0.00 0.00 0.00 0.00 0.00 0.00 0.00 0.00
0.00 0.00 0.00 0.00 0.02 0.07 0.09 0.06 0.03 0.01 0.00 0.01 0.03 0.00 0.00 0.00 0.00 0.00 0.00 0.00 0.00 0.00
0.00 0.00 0.00 0.03 0.08 0.08 0.06 0.03 0.01 0.00 0.01 0.02 0.03 0.00 0.00 0.00 0.00 0.00 0.00 0.00 0.00 0.00
0.00 0.00 0.01 0.05 0.09 0.06 0.01 0.00 0.00 0.00 0.01 0.02 0.02 0.00 0.00 0.00 0.00 0.00 0.00 0.00 0.00 0.00
0.00 0.00 0.02 0.04 0.01 0.00 0.00 0.00 0.00 0.00 0.00 0.01 0.01 0.00 0.00 0.00 0.00 0.00 0.01 0.00 0.00 0.00
0.00 0.00 0.01 0.01 0.00 0.00 0.00 0.03 0.03 0.01 0.00 0.01 0.01 0.00 0.00 0.00 0.00 0.00 0.01 0.00 0.00 0.00

GFSNIL_prec_precacc24_060.txt.gz
Total_Precipitation_Accumulation
0.00 0.00 0.00 0.00 0.00 0.00 0.00 0.00 0.01 0.00 0.00 0.00 0.00 0.01 0.01 0.02 0.03 0.05 0.07 0.08 0.07 0.06
0.00 0.00 0.00 0.00 0.00 0.00 0.01 0.00 0.00 0.00 0.00 0.00 0.00 0.01 0.01 0.03 0.05 0.07 0.07 0.08 0.09 0.06
0.00 0.00 0.00 0.00 0.00 0.00 0.00 0.00 0.00 0.00 0.00 0.00 0.00 0.01 0.03 0.04 0.05 0.06 0.06 0.04 0.03 0.02
0.00 0.00 0.00 0.00 0.00 0.00 0.00 0.00 0.00 0.00 0.00 0.00 0.00 0.02 0.04 0.04 0.03 0.02 0.01 0.01 0.01 0.00
0.00 0.01 0.01 0.00 0.00 0.00 0.00 0.00 0.00 0.00 0.00 0.00 0.01 0.03 0.02 0.01 0.00 0.00 0.00 0.00 0.00 0.00
0.00 0.00 0.00 0.00 0.00 0.00 0.00 0.00 0.00 0.00 0.00 0.01 0.01 0.01 0.00 0.00 0.00 0.00 0.00 0.00 0.00 0.00
0.00 0.00 0.00 0.00 0.00 0.00 0.00 0.00 0.00 0.00 0.01 0.01 0.01 0.02 0.01 0.00 0.00 0.00 0.00 0.01 0.00 0.00
0.00 0.00 0.00 0.00 0.00 0.01 0.01 0.00 0.01 0.02 0.02 0.03 0.04 0.02 0.00 0.00 0.00 0.01 0.01 0.00 0.00 0.00
0.00 0.00 0.00 0.00 0.00 0.00 0.00 0.03 0.06 0.04 0.04 0.01 0.00 0.00 0.00 0.00 0.00 0.00 0.00 0.00 0.00 0.00
0.00 0.00 0.00 0.00 0.00 0.00 0.01 0.05 0.03 0.01 0.00 0.01 0.03 0.00 0.00 0.00 0.00 0.00 0.00 0.00 0.00 0.00
0.00 0.00 0.00 0.00 0.00 0.00 0.01 0.02 0.01 0.00 0.01 0.02 0.03 0.00 0.00 0.00 0.00 0.00 0.00 0.00 0.00 0.00
0.00 0.00 0.00 0.00 0.00 0.00 0.00 0.00 0.00 0.00 0.01 0.02 0.02 0.00 0.00 0.00 0.00 0.00 0.00 0.00 0.00 0.00
0.00 0.00 0.00 0.00 0.00 0.00 0.00 0.00 0.00 0.00 0.00 0.01 0.01 0.00 0.00 0.00 0.00 0.00 0.00 0.00 0.00 0.00
0.00 0.00 0.00 0.00 0.00 0.00 0.00 0.03 0.03 0.01 0.00 0.01 0.01 0.00 0.00 0.00 0.00 0.00 0.00 0.00 0.00 0.00

GFSNIL_prec_precacc24_063.txt.gz
Total_Precipitation_Accumulation
0.00 0.00 0.00 0.00 0.00 0.00 0.00 0.01 0.02 0.01 0.00 0.00 0.00 0.01 0.01 0.02 0.03 0.05 0.07 0.08 0.07 0.06
0.00 0.00 0.00 0.00 0.01 0.03 0.02 0.02 0.00 0.00 0.00 0.00 0.00 0.01 0.01 0.03 0.05 0.07 0.07 0.08 0.08 0.05
0.00 0.00 0.00 0.01 0.02 0.02 0.02 0.01 0.00 0.00 0.00 0.00 0.00 0.01 0.03 0.04 0.05 0.06 0.06 0.04 0.02 0.01
0.00 0.00 0.01 0.02 0.03 0.03 0.01 0.00 0.00 0.00 0.00 0.00 0.00 0.02 0.04 0.04 0.03 0.02 0.01 0.01 0.01 0.00
0.00 0.02 0.06 0.07 0.03 0.00 0.00 0.00 0.00 0.00 0.00 0.00 0.01 0.03 0.02 0.01 0.00 0.00 0.00 0.00 0.00 0.00
0.02 0.02 0.01 0.00 0.00 0.00 0.00 0.00 0.00 0.00 0.00 0.01 0.01 0.01 0.00 0.00 0.00 0.00 0.00 0.00 0.00 0.00
0.01 0.01 0.00 0.00 0.00 0.00 0.00 0.00 0.00 0.00 0.01 0.01 0.01 0.02 0.01 0.00 0.00 0.00 0.00 0.01 0.00 0.00
0.00 0.00 0.00 0.00 0.00 0.00 0.00 0.00 0.00 0.00 0.01 0.03 0.04 0.02 0.00 0.00 0.00 0.01 0.01 0.00 0.00 0.00
0.00 0.00 0.00 0.00 0.00 0.00 0.00 0.00 0.00 0.02 0.04 0.01 0.00 0.00 0.00 0.00 0.00 0.00 0.00 0.00 0.00 0.00
0.00 0.00 0.00 0.00 0.00 0.00 0.00 0.00 0.00 0.01 0.00 0.01 0.03 0.00 0.00 0.00 0.00 0.00 0.00 0.00 0.00 0.00
0.00 0.00 0.00 0.00 0.00 0.00 0.00 0.00 0.00 0.00 0.01 0.02 0.03 0.00 0.00 0.00 0.00 0.00 0.00 0.00 0.00 0.00
0.00 0.00 0.00 0.00 0.00 0.00 0.00 0.00 0.00 0.00 0.01 0.02 0.02 0.00 0.00 0.00 0.00 0.00 0.00 0.00 0.00 0.00
0.00 0.00 0.00 0.00 0.00 0.00 0.00 0.00 0.00 0.00 0.00 0.01 0.01 0.00 0.00 0.00 0.00 0.00 0.00 0.00 0.00 0.00
0.00 0.00 0.00 0.00 0.00 0.00 0.00 0.03 0.03 0.01 0.00 0.01 0.01 0.00 0.00 0.00 0.00 0.00 0.00 0.00 0.00 0.00

GFSNIL_prec_precacc24_066.txt.gz
Total_Precipitation_Accumulation
0.03 0.04 0.00 0.00 0.00 0.00 0.01 0.02 0.03 0.03 0.02 0.00 0.00 0.01 0.01 0.02 0.03 0.05 0.07 0.08 0.07 0.06
0.03 0.01 0.00 0.00 0.01 0.03 0.03 0.02 0.02 0.05 0.02 0.00 0.00 0.01 0.01 0.03 0.05 0.07 0.07 0.08 0.08 0.05
0.00 0.00 0.00 0.01 0.02 0.02 0.02 0.05 0.07 0.02 0.00 0.00 0.00 0.01 0.03 0.04 0.05 0.06 0.06 0.04 0.02 0.01
0.00 0.00 0.01 0.02 0.03 0.04 0.05 0.04 0.00 0.00 0.00 0.00 0.00 0.02 0.04 0.04 0.03 0.02 0.01 0.01 0.01 0.00
0.00 0.02 0.06 0.07 0.05 0.03 0.02 0.00 0.00 0.00 0.00 0.00 0.01 0.03 0.02 0.01 0.00 0.00 0.00 0.00 0.00 0.00
0.02 0.02 0.02 0.04 0.05 0.02 0.00 0.00 0.00 0.00 0.00 0.01 0.01 0.01 0.00 0.00 0.00 0.00 0.00 0.00 0.00 0.00
0.03 0.02 0.01 0.00 0.00 0.00 0.00 0.00 0.00 0.00 0.00 0.00 0.01 0.02 0.01 0.00 0.00 0.00 0.00 0.01 0.00 0.00
0.03 0.00 0.00 0.00 0.00 0.00 0.00 0.00 0.00 0.00 0.00 0.01 0.04 0.02 0.00 0.00 0.00 0.01 0.01 0.00 0.00 0.00
0.00 0.00 0.00 0.00 0.00 0.00 0.00 0.00 0.00 0.00 0.00 0.00 0.00 0.00 0.00 0.00 0.00 0.00 0.00 0.00 0.00 0.00
0.00 0.00 0.00 0.00 0.00 0.00 0.00 0.00 0.00 0.00 0.00 0.01 0.03 0.00 0.00 0.00 0.00 0.00 0.00 0.00 0.00 0.00
0.00 0.00 0.00 0.00 0.00 0.00 0.00 0.00 0.00 0.00 0.01 0.02 0.03 0.00 0.00 0.00 0.00 0.00 0.00 0.00 0.00 0.00
0.00 0.00 0.00 0.00 0.00 0.00 0.00 0.00 0.00 0.00 0.01 0.02 0.02 0.00 0.00 0.00 0.00 0.00 0.00 0.00 0.00 0.00
0.00 0.00 0.00 0.00 0.00 0.00 0.00 0.00 0.00 0.00 0.00 0.01 0.01 0.00 0.00 0.00 0.00 0.00 0.00 0.00 0.00 0.00
0.00 0.00 0.00 0.00 0.00 0.00 0.00 0.02 0.03 0.01 0.00 0.01 0.01 0.00 0.00 0.00 0.00 0.00 0.00 0.00 0.00 0.00

GFSNIL_prec_precacc24_069.txt.gz
Total_Precipitation_Accumulation
0.10 0.08 0.01 0.00 0.00 0.00 0.01 0.02 0.03 0.03 0.03 0.05 0.04 0.01 0.01 0.02 0.03 0.05 0.07 0.08 0.07 0.06
0.07 0.03 0.02 0.01 0.01 0.03 0.03 0.02 0.02 0.07 0.09 0.07 0.01 0.01 0.01 0.03 0.05 0.06 0.07 0.08 0.08 0.05
0.04 0.03 0.02 0.03 0.02 0.02 0.02 0.05 0.09 0.10 0.08 0.03 0.00 0.01 0.02 0.03 0.04 0.05 0.06 0.04 0.02 0.01
0.02 0.02 0.05 0.05 0.04 0.05 0.06 0.08 0.10 0.08 0.01 0.00 0.00 0.02 0.04 0.04 0.03 0.02 0.01 0.01 0.01 0.00
0.04 0.05 0.08 0.08 0.06 0.08 0.11 0.08 0.01 0.00 0.00 0.00 0.01 0.03 0.02 0.01 0.00 0.00 0.00 0.00 0.00 0.00
0.06 0.03 0.04 0.11 0.14 0.04 0.01 0.00 0.00 0.00 0.00 0.00 0.00 0.00 0.00 0.00 0.00 0.00 0.00 0.00 0.00 0.00
0.05 0.05 0.07 0.04 0.02 0.00 0.00 0.00 0.00 0.00 0.00 0.00 0.00 0.00 0.01 0.00 0.00 0.00 0.00 0.01 0.00 0.00
0.17 0.27 0.20 0.05 0.00 0.01 0.00 0.00 0.00 0.00 0.00 0.00 0.00 0.00 0.00 0.00 0.00 0.01 0.01 0.00 0.00 0.00
0.22 0.10 0.01 0.00 0.01 0.00 0.00 0.00 0.00 0.00 0.00 0.00 0.00 0.00 0.00 0.00 0.00 0.00 0.00 0.00 0.00 0.00
0.01 0.00 0.00 0.00 0.00 0.00 0.00 0.00 0.00 0.00 0.00 0.01 0.03 0.00 0.00 0.00 0.00 0.00 0.00 0.00 0.00 0.00
0.00 0.00 0.00 0.00 0.00 0.00 0.00 0.00 0.00 0.00 0.01 0.02 0.03 0.00 0.00 0.00 0.00 0.00 0.00 0.00 0.00 0.00
0.00 0.00 0.00 0.00 0.00 0.00 0.00 0.00 0.00 0.00 0.01 0.02 0.02 0.00 0.00 0.00 0.00 0.00 0.00 0.00 0.00 0.00
0.00 0.00 0.00 0.00 0.00 0.00 0.00 0.00 0.00 0.00 0.00 0.01 0.01 0.00 0.00 0.00 0.00 0.00 0.00 0.00 0.00 0.00
0.00 0.00 0.00 0.00 0.00 0.00 0.00 0.00 0.01 0.01 0.00 0.01 0.01 0.00 0.00 0.00 0.00 0.00 0.00 0.00 0.00 0.00

GFSNIL_prec_precacc24_072.txt.gz
Total_Precipitation_Accumulation
0.11 0.09 0.04 0.02 0.00 0.00 0.01 0.02 0.03 0.03 0.03 0.05 0.06 0.04 0.02 0.01 0.02 0.03 0.04 0.05 0.05 0.05
0.07 0.04 0.05 0.03 0.01 0.03 0.03 0.02 0.02 0.07 0.09 0.08 0.06 0.02 0.00 0.01 0.02 0.03 0.03 0.05 0.05 0.04
0.04 0.05 0.05 0.06 0.03 0.02 0.02 0.05 0.09 0.10 0.12 0.10 0.03 0.00 0.00 0.01 0.02 0.04 0.04 0.03 0.02 0.01
0.05 0.05 0.09 0.11 0.08 0.06 0.07 0.08 0.13 0.18 0.14 0.03 0.00 0.00 0.00 0.01 0.02 0.01 0.01 0.01 0.01 0.00
0.09 0.11 0.13 0.13 0.09 0.11 0.15 0.12 0.07 0.04 0.00 0.00 0.00 0.00 0.00 0.00 0.00 0.00 0.00 0.00 0.00 0.00
0.12 0.11 0.11 0.16 0.23 0.21 0.15 0.07 0.02 0.00 0.00 0.00 0.00 0.00 0.00 0.00 0.00 0.00 0.00 0.00 0.00 0.00
0.08 0.08 0.10 0.14 0.21 0.20 0.11 0.04 0.01 0.00 0.00 0.00 0.00 0.00 0.00 0.00 0.00 0.00 0.00 0.01 0.00 0.00
0.17 0.28 0.29 0.29 0.22 0.10 0.02 0.02 0.01 0.00 0.00 0.00 0.00 0.00 0.00 0.00 0.00 0.01 0.01 0.00 0.00 0.00
0.23 0.14 0.09 0.08 0.03 0.01 0.00 0.00 0.00 0.00 0.00 0.00 0.00 0.00 0.00 0.00 0.00 0.00 0.00 0.00 0.00 0.00
0.01 0.00 0.00 0.00 0.00 0.00 0.00 0.00 0.00 0.00 0.00 0.01 0.03 0.00 0.00 0.00 0.00 0.00 0.00 0.00 0.00 0.00
0.00 0.00 0.00 0.00 0.00 0.00 0.00 0.00 0.00 0.00 0.00 0.02 0.03 0.00 0.00 0.00 0.00 0.00 0.00 0.00 0.00 0.00
0.00 0.00 0.00 0.01 0.00 0.00 0.00 0.00 0.00 0.00 0.01 0.02 0.02 0.00 0.00 0.00 0.00 0.00 0.00 0.00 0.00 0.00
0.00 0.00 0.00 0.00 0.00 0.00 0.00 0.00 0.00 0.00 0.00 0.01 0.01 0.00 0.00 0.00 0.00 0.00 0.00 0.00 0.00 0.00
0.00 0.00 0.00 0.00 0.00 0.00 0.00 0.00 0.00 0.00 0.00 0.01 0.01 0.00 0.00 0.00 0.00 0.00 0.00 0.00 0.00 0.00

GFSNIL_prec_precacc24_075.txt.gz
Total_Precipitation_Accumulation
0.11 0.09 0.04 0.03 0.02 0.03 0.02 0.02 0.03 0.03 0.03 0.05 0.06 0.03 0.01 0.00 0.00 0.01 0.02 0.02 0.02 0.02
0.07 0.04 0.06 0.06 0.04 0.05 0.05 0.02 0.02 0.07 0.09 0.08 0.06 0.01 0.00 0.01 0.00 0.02 0.02 0.01 0.02 0.02
0.05 0.06 0.06 0.09 0.08 0.07 0.04 0.05 0.09 0.10 0.12 0.12 0.10 0.09 0.06 0.01 0.00 0.01 0.01 0.01 0.01 0.01
0.06 0.06 0.10 0.14 0.15 0.15 0.10 0.09 0.13 0.19 0.18 0.15 0.11 0.06 0.01 0.00 0.00 0.00 0.00 0.00 0.00 0.00
0.11 0.13 0.15 0.15 0.14 0.16 0.20 0.21 0.20 0.15 0.10 0.06 0.02 0.00 0.00 0.00 0.00 0.00 0.00 0.00 0.00 0.00
0.13 0.11 0.12 0.20 0.30 0.30 0.30 0.27 0.14 0.08 0.08 0.04 0.01 0.00 0.00 0.00 0.00 0.00 0.00 0.00 0.00 0.00
0.08 0.08 0.10 0.15 0.27 0.36 0.26 0.18 0.17 0.17 0.11 0.03 0.00 0.00 0.00 0.00 0.00 0.00 0.00 0.00 0.00 0.00
0.19 0.30 0.30 0.30 0.23 0.14 0.10 0.07 0.04 0.01 0.00 0.00 0.00 0.00 0.00 0.00 0.00 0.00 0.00 0.00 0.00 0.00
0.29 0.16 0.10 0.08 0.04 0.02 0.01 0.00 0.00 0.00 0.00 0.00 0.00 0.00 0.00 0.00 0.00 0.00 0.00 0.00 0.00 0.00
0.03 0.01 0.00 0.00 0.00 0.00 0.00 0.00 0.00 0.00 0.00 0.00 0.01 0.00 0.00 0.00 0.00 0.00 0.00 0.00 0.00 0.00
0.00 0.00 0.00 0.00 0.00 0.00 0.00 0.00 0.00 0.00 0.00 0.00 0.01 0.00 0.00 0.00 0.00 0.00 0.00 0.00 0.00 0.00
0.00 0.00 0.00 0.01 0.00 0.00 0.00 0.00 0.00 0.00 0.00 0.01 0.01 0.00 0.00 0.00 0.00 0.00 0.00 0.00 0.00 0.00
0.00 0.00 0.00 0.00 0.00 0.00 0.00 0.00 0.00 0.00 0.00 0.00 0.00 0.00 0.00 0.00 0.00 0.00 0.00 0.00 0.00 0.00
0.00 0.00 0.00 0.00 0.00 0.00 0.00 0.00 0.00 0.00 0.00 0.00 0.00 0.00 0.00 0.00 0.00 0.00 0.00 0.00 0.00 0.00

GFSNIL_prec_precacc24_078.txt.gz
Total_Precipitation_Accumulation
0.11 0.10 0.08 0.06 0.04 0.03 0.02 0.03 0.04 0.03 0.03 0.05 0.06 0.03 0.01 0.00 0.00 0.00 0.00 0.00 0.00 0.00
0.09 0.04 0.10 0.15 0.08 0.05 0.05 0.03 0.03 0.07 0.10 0.08 0.06 0.01 0.00 0.01 0.02 0.02 0.01 0.00 0.00 0.00
0.05 0.07 0.08 0.11 0.08 0.08 0.06 0.07 0.10 0.11 0.13 0.12 0.10 0.09 0.08 0.07 0.05 0.02 0.00 0.00 0.00 0.00
0.11 0.11 0.13 0.16 0.16 0.17 0.14 0.13 0.17 0.27 0.30 0.27 0.18 0.15 0.12 0.08 0.03 0.00 0.00 0.00 0.00 0.00
0.25 0.16 0.20 0.24 0.17 0.19 0.26 0.33 0.46 0.50 0.34 0.20 0.13 0.07 0.04 0.02 0.01 0.00 0.00 0.00 0.00 0.00
0.28 0.13 0.17 0.24 0.33 0.33 0.31 0.30 0.21 0.14 0.16 0.17 0.13 0.08 0.04 0.01 0.00 0.00 0.00 0.00 0.00 0.00
0.15 0.13 0.19 0.20 0.30 0.37 0.26 0.18 0.17 0.20 0.22 0.11 0.04 0.01 0.00 0.00 0.00 0.00 0.00 0.00 0.00 0.00
0.25 0.40 0.38 0.32 0.25 0.16 0.10 0.08 0.06 0.04 0.02 0.00 0.00 0.00 0.00 0.00 0.00 0.00 0.00 0.00 0.00 0.00
0.40 0.25 0.17 0.11 0.05 0.03 0.01 0.00 0.00 0.00 0.00 0.00 0.00 0.00 0.00 0.00 0.00 0.00 0.00 0.00 0.00 0.00
0.09 0.05 0.02 0.01 0.00 0.00 0.00 0.00 0.00 0.00 0.00 0.00 0.00 0.00 0.00 0.00 0.00 0.00 0.00 0.00 0.00 0.00
0.03 0.02 0.00 0.00 0.00 0.00 0.00 0.00 0.00 0.00 0.00 0.00 0.00 0.00 0.00 0.00 0.00 0.00 0.00 0.00 0.00 0.00
0.00 0.00 0.00 0.01 0.00 0.00 0.00 0.00 0.00 0.00 0.00 0.00 0.00 0.00 0.00 0.00 0.00 0.00 0.00 0.00 0.00 0.00
0.00 0.00 0.00 0.00 0.00 0.00 0.00 0.00 0.00 0.00 0.00 0.00 0.00 0.00 0.00 0.00 0.00 0.00 0.00 0.00 0.00 0.00
0.00 0.00 0.00 0.00 0.00 0.00 0.00 0.00 0.00 0.00 0.00 0.00 0.00 0.00 0.00 0.00 0.00 0.00 0.00 0.00 0.00 0.00

GFSNIL_prec_precacc24_081.txt.gz
Total_Precipitation_Accumulation
0.13 0.10 0.08 0.07 0.12 0.05 0.03 0.03 0.04 0.04 0.03 0.05 0.06 0.04 0.02 0.00 0.00 0.00 0.00 0.00 0.00 0.00
0.11 0.07 0.13 0.31 0.17 0.16 0.07 0.04 0.03 0.07 0.10 0.09 0.06 0.03 0.03 0.07 0.07 0.04 0.01 0.01 0.01 0.01
0.10 0.10 0.15 0.29 0.13 0.15 0.10 0.11 0.15 0.12 0.13 0.13 0.13 0.21 0.31 0.28 0.15 0.07 0.06 0.05 0.01 0.00
0.18 0.16 0.16 0.22 0.29 0.24 0.28 0.25 0.25 0.30 0.36 0.52 0.59 0.48 0.33 0.21 0.15 0.09 0.05 0.02 0.01 0.00
0.28 0.29 0.30 0.33 0.28 0.31 0.32 0.34 0.47 0.51 0.38 0.25 0.16 0.11 0.09 0.08 0.06 0.04 0.02 0.01 0.00 0.00
0.37 0.38 0.46 0.46 0.50 0.45 0.37 0.32 0.22 0.14 0.16 0.17 0.13 0.09 0.07 0.03 0.01 0.00 0.00 0.00 0.00 0.00
0.33 0.40 0.32 0.34 0.39 0.45 0.30 0.20 0.22 0.26 0.23 0.12 0.05 0.02 0.01 0.00 0.00 0.00 0.00 0.00 0.00 0.00
0.48 0.68 0.50 0.45 0.32 0.18 0.13 0.11 0.08 0.05 0.03 0.01 0.00 0.00 0.00 0.00 0.00 0.00 0.00 0.00 0.00 0.00
0.49 0.29 0.25 0.18 0.09 0.04 0.01 0.01 0.01 0.00 0.00 0.00 0.00 0.00 0.00 0.00 0.00 0.00 0.00 0.00 0.00 0.00
0.14 0.07 0.06 0.04 0.02 0.01 0.01 0.01 0.00 0.00 0.00 0.00 0.00 0.00 0.00 0.00 0.00 0.00 0.00 0.00 0.00 0.00
0.04 0.02 0.02 0.02 0.03 0.02 0.01 0.00 0.00 0.00 0.00 0.00 0.00 0.00 0.00 0.00 0.00 0.00 0.00 0.00 0.00 0.00
0.00 0.00 0.01 0.02 0.01 0.00 0.00 0.00 0.00 0.00 0.00 0.00 0.00 0.00 0.00 0.00 0.00 0.00 0.00 0.00 0.00 0.00
0.00 0.00 0.00 0.00 0.00 0.00 0.00 0.00 0.00 0.00 0.00 0.00 0.00 0.00 0.00 0.00 0.00 0.00 0.00 0.00 0.00 0.00
0.00 0.00 0.00 0.00 0.00 0.00 0.00 0.00 0.00 0.00 0.00 0.00 0.00 0.00 0.00 0.00 0.00 0.00 0.00 0.00 0.00 0.00

GFSNIL_prec_precacc24_084.txt.gz
Total_Precipitation_Accumulation
0.13 0.10 0.08 0.07 0.12 0.06 0.03 0.03 0.03 0.04 0.03 0.05 0.06 0.04 0.02 0.01 0.03 0.08 0.14 0.13 0.08 0.05
0.14 0.07 0.13 0.31 0.17 0.17 0.07 0.05 0.04 0.11 0.12 0.09 0.06 0.03 0.04 0.13 0.21 0.22 0.19 0.17 0.11 0.05
0.13 0.15 0.17 0.29 0.13 0.16 0.18 0.22 0.31 0.25 0.17 0.14 0.14 0.21 0.36 0.43 0.38 0.27 0.19 0.14 0.09 0.04
0.18 0.18 0.27 0.28 0.32 0.28 0.43 0.47 0.43 0.45 0.43 0.54 0.60 0.49 0.34 0.23 0.16 0.11 0.08 0.05 0.02 0.01
0.30 0.34 0.40 0.54 0.51 0.57 0.63 0.57 0.61 0.64 0.43 0.25 0.16 0.11 0.09 0.08 0.07 0.04 0.03 0.01 0.00 0.00
0.37 0.38 0.66 0.74 0.97 1.01 0.85 0.53 0.31 0.18 0.18 0.18 0.14 0.09 0.08 0.05 0.03 0.02 0.01 0.00 0.00 0.00
0.33 0.43 0.53 0.62 0.71 0.76 0.39 0.28 0.28 0.29 0.26 0.14 0.06 0.04 0.04 0.04 0.03 0.03 0.01 0.00 0.00 0.00
0.55 0.88 0.89 0.86 0.55 0.29 0.19 0.16 0.11 0.06 0.03 0.02 0.02 0.04 0.04 0.02 0.01 0.01 0.01 0.00 0.00 0.00
0.54 0.37 0.33 0.26 0.17 0.09 0.04 0.03 0.01 0.01 0.01 0.02 0.03 0.11 0.08 0.03 0.01 0.01 0.00 0.00 0.00 0.00
0.15 0.09 0.08 0.06 0.05 0.04 0.03 0.02 0.01 0.01 0.01 0.02 0.02 0.04 0.02 0.01 0.00 0.00 0.00 0.00 0.00 0.00
0.04 0.03 0.02 0.03 0.04 0.03 0.05 0.04 0.03 0.03 0.04 0.05 0.04 0.04 0.02 0.01 0.00 0.00 0.00 0.00 0.00 0.00
0.00 0.00 0.01 0.02 0.01 0.02 0.04 0.04 0.04 0.03 0.02 0.01 0.01 0.01 0.00 0.00 0.00 0.00 0.00 0.00 0.00 0.00
0.00 0.00 0.00 0.01 0.01 0.01 0.01 0.01 0.00 0.00 0.00 0.00 0.00 0.00 0.00 0.00 0.00 0.00 0.00 0.00 0.00 0.00
0.00 0.00 0.00 0.00 0.00 0.01 0.00 0.00 0.00 0.00 0.00 0.00 0.00 0.00 0.00 0.00 0.00 0.00 0.00 0.00 0.00 0.00

GFSNIL_prec_precacc24_087.txt.gz
Total_Precipitation_Accumulation
0.13 0.10 0.08 0.07 0.12 0.05 0.03 0.02 0.02 0.03 0.03 0.06 0.08 0.06 0.03 0.02 0.04 0.09 0.17 0.20 0.18 0.13
0.14 0.07 0.13 0.31 0.17 0.14 0.05 0.04 0.04 0.13 0.15 0.11 0.08 0.04 0.05 0.14 0.22 0.24 0.23 0.21 0.16 0.12
0.13 0.15 0.17 0.29 0.11 0.15 0.16 0.22 0.35 0.32 0.25 0.20 0.17 0.24 0.39 0.45 0.39 0.29 0.21 0.16 0.11 0.06
0.18 0.18 0.27 0.26 0.29 0.29 0.47 0.53 0.53 0.56 0.54 0.66 0.76 0.61 0.35 0.24 0.17 0.12 0.09 0.06 0.02 0.01
0.30 0.33 0.35 0.49 0.49 0.62 0.77 0.77 0.80 0.82 0.62 0.44 0.31 0.21 0.12 0.08 0.07 0.05 0.03 0.01 0.00 0.00
0.38 0.38 0.66 0.76 1.01 1.15 1.14 1.18 1.05 0.67 0.46 0.33 0.19 0.13 0.09 0.06 0.03 0.02 0.02 0.02 0.02 0.01
0.32 0.43 0.55 0.67 0.81 1.16 1.19 0.87 0.51 0.38 0.33 0.19 0.10 0.06 0.04 0.05 0.06 0.06 0.05 0.03 0.02 0.01
0.55 0.91 0.94 0.95 0.78 0.54 0.31 0.22 0.14 0.08 0.05 0.03 0.03 0.06 0.05 0.04 0.03 0.04 0.04 0.04 0.02 0.01
0.55 0.38 0.35 0.31 0.24 0.16 0.10 0.08 0.05 0.03 0.03 0.06 0.07 0.16 0.16 0.13 0.15 0.18 0.16 0.06 0.01 0.01
0.16 0.10 0.10 0.09 0.08 0.07 0.05 0.06 0.04 0.04 0.05 0.08 0.10 0.21 0.12 0.08 0.05 0.04 0.03 0.02 0.01 0.00
0.05 0.04 0.03 0.04 0.05 0.04 0.06 0.05 0.06 0.08 0.12 0.13 0.16 0.21 0.17 0.16 0.11 0.06 0.00 0.00 0.00 0.00
0.01 0.01 0.02 0.02 0.02 0.03 0.05 0.06 0.08 0.11 0.13 0.13 0.13 0.14 0.09 0.04 0.01 0.00 0.00 0.00 0.00 0.00
0.00 0.00 0.00 0.01 0.01 0.02 0.03 0.06 0.07 0.06 0.05 0.06 0.04 0.05 0.03 0.01 0.00 0.00 0.00 0.00 0.00 0.00
0.00 0.00 0.00 0.00 0.01 0.01 0.02 0.01 0.01 0.01 0.02 0.02 0.02 0.02 0.02 0.01 0.01 0.00 0.00 0.00 0.00 0.00

GFSNIL_prec_precacc24_090.txt.gz
Total_Precipitation_Accumulation
0.10 0.06 0.08 0.07 0.12 0.05 0.03 0.02 0.01 0.01 0.01 0.05 0.08 0.06 0.04 0.05 0.07 0.14 0.21 0.22 0.19 0.16
0.11 0.06 0.13 0.31 0.17 0.14 0.04 0.04 0.02 0.07 0.13 0.11 0.08 0.04 0.07 0.16 0.26 0.29 0.26 0.22 0.17 0.14
0.13 0.15 0.17 0.28 0.11 0.15 0.16 0.18 0.28 0.30 0.25 0.20 0.17 0.25 0.43 0.49 0.44 0.33 0.24 0.18 0.13 0.09
0.18 0.18 0.27 0.26 0.29 0.28 0.43 0.50 0.53 0.56 0.55 0.68 0.80 0.72 0.58 0.48 0.38 0.24 0.13 0.08 0.05 0.03
0.30 0.33 0.35 0.49 0.48 0.59 0.75 0.80 0.89 0.92 0.75 0.64 0.66 0.68 0.62 0.53 0.40 0.17 0.06 0.03 0.02 0.01
0.38 0.38 0.66 0.72 0.96 1.14 1.15 1.22 1.19 1.13 0.97 0.84 0.66 0.47 0.33 0.22 0.13 0.07 0.07 0.06 0.04 0.03
0.32 0.43 0.56 0.68 0.82 1.18 1.23 0.95 0.73 0.67 0.48 0.20 0.11 0.07 0.07 0.09 0.10 0.11 0.10 0.07 0.05 0.04
0.53 0.91 0.95 0.98 0.83 0.61 0.40 0.33 0.25 0.16 0.10 0.05 0.04 0.07 0.08 0.07 0.06 0.06 0.07 0.10 0.12 0.14
0.55 0.39 0.38 0.34 0.27 0.20 0.15 0.13 0.11 0.11 0.09 0.10 0.09 0.21 0.20 0.16 0.16 0.19 0.21 0.21 0.17 0.14
0.16 0.11 0.11 0.10 0.10 0.10 0.09 0.09 0.08 0.08 0.08 0.10 0.13 0.30 0.25 0.22 0.14 0.16 0.15 0.12 0.10 0.08
0.05 0.04 0.03 0.04 0.06 0.06 0.08 0.07 0.08 0.10 0.15 0.18 0.31 0.43 0.32 0.33 0.27 0.29 0.23 0.19 0.14 0.08
0.02 0.02 0.03 0.05 0.03 0.04 0.06 0.07 0.10 0.12 0.15 0.16 0.23 0.31 0.23 0.18 0.13 0.12 0.08 0.05 0.02 0.01
0.02 0.02 0.02 0.02 0.02 0.03 0.05 0.10 0.10 0.11 0.10 0.13 0.09 0.15 0.10 0.05 0.02 0.02 0.02 0.02 0.03 0.04
0.00 0.00 0.01 0.01 0.01 0.02 0.03 0.02 0.01 0.01 0.02 0.03 0.04 0.06 0.06 0.04 0.04 0.05 0.06 0.05 0.02 0.01

GFSNIL_prec_precacc24_093.txt.gz
Total_Precipitation_Accumulation
0.03 0.02 0.08 0.07 0.12 0.05 0.03 0.02 0.01 0.01 0.01 0.01 0.04 0.06 0.04 0.05 0.08 0.15 0.24 0.25 0.23 0.21
0.07 0.04 0.11 0.30 0.17 0.14 0.04 0.04 0.02 0.06 0.06 0.04 0.07 0.04 0.07 0.16 0.26 0.30 0.29 0.26 0.22 0.17
0.09 0.11 0.15 0.26 0.11 0.15 0.16 0.18 0.26 0.22 0.16 0.17 0.17 0.25 0.43 0.49 0.45 0.34 0.26 0.21 0.17 0.12
0.16 0.16 0.23 0.23 0.28 0.27 0.42 0.46 0.44 0.49 0.53 0.68 0.80 0.73 0.59 0.50 0.41 0.33 0.28 0.21 0.16 0.11
0.25 0.30 0.33 0.48 0.47 0.55 0.66 0.73 0.87 0.92 0.76 0.65 0.71 0.84 0.89 0.78 0.69 0.58 0.46 0.35 0.29 0.17
0.34 0.37 0.63 0.65 0.88 1.11 1.15 1.22 1.20 1.15 1.02 0.90 0.79 0.64 0.52 0.37 0.30 0.26 0.24 0.20 0.16 0.13
0.30 0.41 0.51 0.64 0.80 1.19 1.23 0.96 0.73 0.69 0.53 0.27 0.13 0.08 0.08 0.09 0.11 0.14 0.16 0.14 0.13 0.14
0.39 0.64 0.75 0.93 0.83 0.62 0.41 0.35 0.29 0.20 0.15 0.10 0.07 0.09 0.10 0.08 0.07 0.07 0.09 0.13 0.16 0.17
0.33 0.29 0.36 0.34 0.27 0.21 0.17 0.16 0.13 0.14 0.12 0.13 0.12 0.25 0.23 0.18 0.17 0.19 0.22 0.21 0.18 0.17
0.16 0.11 0.12 0.11 0.11 0.11 0.09 0.10 0.09 0.09 0.09 0.13 0.17 0.38 0.29 0.27 0.16 0.18 0.24 0.29 0.34 0.39
0.06 0.05 0.04 0.05 0.07 0.07 0.09 0.09 0.10 0.14 0.21 0.24 0.36 0.49 0.35 0.37 0.29 0.34 0.39 0.38 0.31 0.25
0.03 0.03 0.04 0.06 0.05 0.06 0.07 0.11 0.15 0.16 0.18 0.18 0.24 0.35 0.24 0.20 0.13 0.14 0.13 0.10 0.08 0.08
0.03 0.04 0.04 0.03 0.04 0.05 0.08 0.12 0.11 0.13 0.11 0.15 0.10 0.18 0.13 0.08 0.03 0.05 0.06 0.07 0.09 0.12
0.02 0.02 0.02 0.02 0.03 0.04 0.04 0.03 0.02 0.02 0.02 0.04 0.05 0.07 0.08 0.07 0.06 0.09 0.11 0.11 0.08 0.06

GFSNIL_prec_precacc24_096.txt.gz
Total_Precipitation_Accumulation
0.02 0.01 0.05 0.05 0.11 0.05 0.03 0.02 0.01 0.01 0.01 0.02 0.04 0.06 0.08 0.08 0.09 0.15 0.24 0.25 0.23 0.22
0.07 0.04 0.08 0.28 0.16 0.14 0.04 0.04 0.02 0.06 0.06 0.03 0.03 0.04 0.09 0.17 0.26 0.31 0.29 0.26 0.22 0.17
0.08 0.09 0.12 0.23 0.10 0.15 0.16 0.18 0.26 0.22 0.13 0.10 0.14 0.25 0.43 0.49 0.45 0.35 0.27 0.22 0.17 0.12
0.13 0.13 0.19 0.18 0.25 0.26 0.41 0.46 0.41 0.38 0.41 0.64 0.80 0.73 0.59 0.50 0.41 0.33 0.28 0.22 0.20 0.20
0.20 0.24 0.28 0.43 0.44 0.52 0.63 0.69 0.82 0.89 0.75 0.65 0.71 0.84 0.89 0.79 0.70 0.62 0.55 0.47 0.47 0.44
0.28 0.30 0.57 0.61 0.79 0.94 1.01 1.15 1.18 1.15 1.02 0.90 0.79 0.64 0.55 0.46 0.36 0.29 0.26 0.25 0.25 0.22
0.27 0.38 0.48 0.55 0.62 0.99 1.13 0.92 0.72 0.68 0.53 0.27 0.13 0.08 0.08 0.10 0.12 0.14 0.16 0.16 0.16 0.17
0.38 0.63 0.66 0.69 0.62 0.53 0.40 0.34 0.28 0.21 0.16 0.12 0.08 0.10 0.10 0.08 0.08 0.10 0.13 0.16 0.19 0.20
0.32 0.25 0.29 0.27 0.24 0.20 0.17 0.16 0.14 0.15 0.13 0.15 0.14 0.27 0.25 0.21 0.18 0.22 0.24 0.24 0.20 0.19
0.16 0.11 0.12 0.11 0.11 0.11 0.10 0.10 0.10 0.10 0.10 0.13 0.19 0.45 0.31 0.31 0.18 0.19 0.25 0.31 0.37 0.42
0.06 0.05 0.04 0.06 0.08 0.09 0.11 0.09 0.11 0.15 0.23 0.26 0.39 0.53 0.36 0.39 0.30 0.34 0.39 0.38 0.32 0.27
0.03 0.03 0.06 0.10 0.10 0.08 0.10 0.13 0.16 0.17 0.19 0.19 0.26 0.38 0.25 0.20 0.13 0.14 0.13 0.11 0.10 0.10
0.04 0.04 0.05 0.05 0.05 0.06 0.09 0.13 0.13 0.15 0.12 0.16 0.11 0.19 0.14 0.08 0.03 0.05 0.06 0.08 0.12 0.18
0.02 0.02 0.02 0.03 0.04 0.05 0.05 0.04 0.03 0.03 0.03 0.04 0.05 0.08 0.09 0.08 0.06 0.10 0.12 0.13 0.11 0.10

GFSNIL_prec_precacc24_102.txt.gz
Total_Precipitation_Accumulation
0.01 0.00 0.01 0.01 0.08 0.05 0.06 0.03 0.02 0.02 0.02 0.03 0.07 0.08 0.14 0.20 0.19 0.23 0.31 0.32 0.28 0.28
0.05 0.03 0.03 0.16 0.10 0.13 0.03 0.04 0.02 0.06 0.05 0.03 0.03 0.05 0.11 0.19 0.30 0.34 0.33 0.31 0.29 0.25
0.07 0.07 0.09 0.18 0.05 0.10 0.13 0.16 0.26 0.22 0.12 0.08 0.08 0.16 0.35 0.44 0.41 0.37 0.30 0.27 0.21 0.18
0.06 0.07 0.15 0.13 0.16 0.15 0.34 0.42 0.37 0.30 0.25 0.41 0.62 0.58 0.47 0.42 0.38 0.34 0.29 0.24 0.22 0.21
0.05 0.19 0.21 0.32 0.36 0.44 0.52 0.48 0.43 0.42 0.42 0.45 0.58 0.77 0.85 0.78 0.69 0.62 0.55 0.48 0.49 0.46
0.13 0.27 0.50 0.52 0.69 0.82 0.84 0.91 0.99 1.02 0.87 0.73 0.66 0.56 0.52 0.46 0.36 0.29 0.27 0.25 0.27 0.25
0.20 0.32 0.39 0.48 0.53 0.82 0.97 0.77 0.56 0.48 0.31 0.16 0.10 0.07 0.08 0.10 0.12 0.15 0.19 0.21 0.22 0.22
0.31 0.51 0.57 0.66 0.59 0.47 0.32 0.29 0.23 0.17 0.14 0.12 0.09 0.11 0.10 0.10 0.12 0.14 0.18 0.26 0.36 0.42
0.15 0.14 0.21 0.23 0.23 0.18 0.16 0.16 0.14 0.15 0.14 0.15 0.14 0.28 0.26 0.23 0.23 0.30 0.35 0.39 0.36 0.35
0.08 0.06 0.09 0.10 0.11 0.11 0.09 0.10 0.10 0.10 0.11 0.15 0.21 0.51 0.35 0.39 0.23 0.27 0.36 0.41 0.46 0.49
0.03 0.03 0.04 0.06 0.08 0.09 0.12 0.11 0.12 0.17 0.26 0.31 0.48 0.63 0.43 0.46 0.32 0.37 0.44 0.43 0.37 0.31
0.03 0.03 0.06 0.10 0.10 0.10 0.13 0.17 0.20 0.23 0.26 0.27 0.33 0.49 0.31 0.25 0.14 0.16 0.16 0.13 0.12 0.12
0.04 0.04 0.05 0.05 0.07 0.08 0.12 0.18 0.19 0.22 0.18 0.24 0.15 0.28 0.19 0.12 0.04 0.07 0.07 0.08 0.13 0.21
0.02 0.03 0.03 0.04 0.06 0.09 0.10 0.09 0.08 0.06 0.06 0.06 0.09 0.14 0.15 0.11 0.07 0.10 0.12 0.13 0.11 0.11

GFSNIL_prec_precacc24_108.txt.gz
Total_Precipitation_Accumulation
0.00 0.00 0.00 0.01 0.05 0.11 0.25 0.47 0.49 0.40 0.21 0.19 0.21 0.22 0.26 0.33 0.29 0.23 0.23 0.23 0.23 0.25
0.00 0.00 0.00 0.00 0.02 0.11 0.08 0.22 0.34 0.41 0.39 0.27 0.21 0.16 0.18 0.16 0.17 0.20 0.18 0.16 0.20 0.22
0.00 0.00 0.00 0.00 0.00 0.04 0.04 0.11 0.16 0.34 0.38 0.32 0.22 0.15 0.14 0.12 0.13 0.15 0.13 0.13 0.13 0.14
0.00 0.00 0.00 0.00 0.00 0.04 0.06 0.10 0.15 0.18 0.35 0.35 0.33 0.30 0.29 0.29 0.25 0.23 0.22 0.19 0.20 0.20
0.00 0.00 0.00 0.01 0.02 0.06 0.15 0.24 0.28 0.29 0.36 0.45 0.56 0.73 0.80 0.71 0.64 0.58 0.52 0.47 0.49 0.46
0.03 0.01 0.02 0.02 0.05 0.14 0.31 0.69 0.90 0.97 0.84 0.72 0.65 0.55 0.48 0.41 0.33 0.27 0.25 0.26 0.29 0.28
0.02 0.02 0.04 0.06 0.12 0.43 0.85 0.68 0.46 0.39 0.27 0.14 0.08 0.04 0.04 0.06 0.10 0.14 0.21 0.24 0.25 0.23
0.00 0.03 0.06 0.13 0.29 0.34 0.23 0.20 0.18 0.15 0.13 0.11 0.07 0.06 0.06 0.08 0.13 0.15 0.18 0.26 0.36 0.43
0.01 0.02 0.05 0.09 0.10 0.12 0.14 0.14 0.13 0.14 0.12 0.13 0.11 0.18 0.19 0.20 0.22 0.30 0.36 0.41 0.39 0.40
0.01 0.02 0.04 0.05 0.06 0.07 0.07 0.08 0.09 0.10 0.10 0.14 0.19 0.50 0.36 0.40 0.24 0.30 0.40 0.47 0.54 0.62
0.01 0.02 0.02 0.02 0.05 0.06 0.07 0.08 0.10 0.16 0.24 0.27 0.47 0.65 0.44 0.49 0.35 0.44 0.53 0.53 0.49 0.46
0.02 0.03 0.05 0.09 0.10 0.10 0.11 0.16 0.18 0.24 0.28 0.29 0.38 0.58 0.37 0.30 0.15 0.21 0.26 0.29 0.35 0.41
0.04 0.04 0.05 0.05 0.07 0.10 0.15 0.21 0.23 0.29 0.26 0.33 0.19 0.39 0.26 0.18 0.06 0.16 0.26 0.33 0.42 0.48
0.06 0.03 0.04 0.07 0.10 0.13 0.16 0.15 0.15 0.14 0.11 0.11 0.16 0.28 0.25 0.18 0.10 0.14 0.19 0.22 0.20 0.15

GFSNIL_prec_precacc24_111.txt.gz
Total_Precipitation_Accumulation
0.00 0.00 0.00 0.01 0.06 0.18 0.37 0.86 0.83 0.61 0.32 0.27 0.29 0.31 0.37 0.47 0.44 0.36 0.33 0.32 0.22 0.21
0.00 0.00 0.00 0.00 0.02 0.18 0.26 0.44 0.58 0.66 0.55 0.39 0.35 0.36 0.42 0.42 0.49 0.47 0.39 0.33 0.31 0.25
0.00 0.00 0.00 0.00 0.00 0.05 0.13 0.27 0.38 0.52 0.55 0.50 0.43 0.39 0.38 0.35 0.38 0.43 0.36 0.27 0.21 0.18
0.00 0.00 0.00 0.00 0.00 0.01 0.02 0.13 0.29 0.38 0.54 0.50 0.39 0.44 0.56 0.52 0.41 0.36 0.36 0.28 0.24 0.22
0.00 0.00 0.00 0.00 0.00 0.00 0.01 0.05 0.19 0.30 0.50 0.68 0.78 0.86 0.91 0.85 0.74 0.65 0.58 0.50 0.51 0.47
0.00 0.00 0.00 0.00 0.00 0.00 0.01 0.03 0.15 0.49 0.63 0.72 0.80 0.74 0.56 0.45 0.34 0.27 0.25 0.24 0.28 0.27
0.01 0.02 0.02 0.02 0.01 0.02 0.04 0.09 0.23 0.30 0.21 0.10 0.05 0.07 0.05 0.05 0.07 0.11 0.18 0.21 0.23 0.22
0.00 0.00 0.01 0.03 0.06 0.08 0.11 0.14 0.15 0.13 0.12 0.09 0.06 0.05 0.05 0.06 0.10 0.12 0.14 0.22 0.34 0.42
0.00 0.01 0.02 0.03 0.04 0.05 0.07 0.08 0.09 0.12 0.10 0.10 0.08 0.13 0.11 0.10 0.09 0.13 0.21 0.36 0.38 0.40
0.00 0.01 0.02 0.02 0.03 0.04 0.05 0.05 0.06 0.07 0.06 0.08 0.12 0.34 0.26 0.33 0.20 0.27 0.39 0.46 0.54 0.63
0.01 0.01 0.01 0.02 0.04 0.05 0.06 0.06 0.07 0.11 0.16 0.20 0.36 0.50 0.31 0.36 0.25 0.40 0.54 0.55 0.52 0.50
0.02 0.02 0.05 0.08 0.09 0.09 0.11 0.14 0.14 0.17 0.17 0.18 0.27 0.48 0.31 0.27 0.16 0.23 0.29 0.32 0.39 0.45
0.09 0.05 0.05 0.05 0.07 0.10 0.13 0.16 0.17 0.23 0.23 0.30 0.16 0.38 0.26 0.19 0.05 0.16 0.28 0.37 0.50 0.59
0.12 0.09 0.05 0.07 0.10 0.13 0.16 0.15 0.16 0.15 0.11 0.11 0.16 0.28 0.28 0.20 0.10 0.16 0.23 0.28 0.28 0.26

GFSNIL_prec_precacc24_114.txt.gz
Total_Precipitation_Accumulation
0.00 0.00 0.00 0.01 0.06 0.18 0.38 0.91 0.94 0.66 0.35 0.29 0.30 0.32 0.36 0.45 0.40 0.32 0.31 0.34 0.24 0.20
0.00 0.00 0.00 0.00 0.02 0.18 0.27 0.52 0.76 0.89 0.75 0.53 0.41 0.41 0.46 0.47 0.50 0.47 0.46 0.46 0.47 0.35
0.00 0.00 0.00 0.00 0.00 0.05 0.14 0.34 0.52 0.75 0.91 0.80 0.58 0.53 0.58 0.58 0.53 0.60 0.60 0.55 0.50 0.43
0.00 0.00 0.00 0.00 0.00 0.01 0.03 0.14 0.36 0.59 0.81 0.85 0.62 0.56 0.68 0.62 0.51 0.50 0.62 0.64 0.53 0.42
0.00 0.01 0.00 0.00 0.00 0.00 0.01 0.03 0.14 0.38 0.69 0.75 0.74 0.67 0.75 0.77 0.76 0.83 0.77 0.67 0.73 0.67
0.00 0.01 0.01 0.00 0.00 0.00 0.00 0.00 0.03 0.08 0.27 0.51 0.58 0.74 0.68 0.61 0.53 0.49 0.41 0.40 0.38 0.34
0.01 0.01 0.01 0.01 0.00 0.00 0.00 0.01 0.01 0.02 0.07 0.17 0.22 0.30 0.44 0.30 0.25 0.22 0.19 0.21 0.23 0.21
0.01 0.01 0.01 0.00 0.01 0.02 0.02 0.03 0.04 0.05 0.07 0.11 0.11 0.20 0.21 0.17 0.13 0.15 0.14 0.17 0.26 0.30
0.01 0.01 0.01 0.01 0.01 0.02 0.02 0.03 0.03 0.04 0.05 0.07 0.07 0.15 0.15 0.14 0.09 0.13 0.16 0.21 0.23 0.27
0.00 0.00 0.01 0.01 0.02 0.02 0.02 0.03 0.03 0.03 0.03 0.06 0.10 0.28 0.15 0.21 0.11 0.16 0.27 0.37 0.46 0.56
0.00 0.00 0.01 0.02 0.03 0.03 0.06 0.06 0.07 0.10 0.15 0.15 0.22 0.29 0.16 0.19 0.09 0.17 0.32 0.38 0.39 0.44
0.01 0.01 0.04 0.06 0.08 0.08 0.11 0.14 0.14 0.16 0.16 0.15 0.17 0.33 0.19 0.14 0.04 0.12 0.23 0.29 0.39 0.46
0.08 0.03 0.03 0.04 0.07 0.09 0.11 0.13 0.15 0.20 0.19 0.24 0.13 0.31 0.21 0.17 0.04 0.16 0.28 0.37 0.52 0.62
0.14 0.09 0.05 0.06 0.09 0.12 0.16 0.15 0.16 0.16 0.12 0.11 0.16 0.28 0.27 0.21 0.08 0.12 0.19 0.27 0.31 0.35

GFSNIL_prec_precacc24_117.txt.gz
Total_Precipitation_Accumulation
0.00 0.00 0.00 0.01 0.06 0.18 0.42 0.97 0.97 0.66 0.36 0.33 0.35 0.33 0.37 0.45 0.40 0.31 0.28 0.31 0.19 0.15
0.00 0.00 0.00 0.00 0.03 0.18 0.28 0.54 0.81 0.94 0.77 0.53 0.43 0.42 0.46 0.47 0.50 0.47 0.43 0.43 0.43 0.32
0.00 0.00 0.00 0.00 0.00 0.05 0.14 0.35 0.55 0.81 1.14 1.09 0.69 0.56 0.59 0.60 0.53 0.59 0.59 0.56 0.53 0.49
0.00 0.00 0.00 0.00 0.00 0.01 0.03 0.14 0.36 0.64 1.05 1.34 0.97 0.77 0.78 0.69 0.54 0.44 0.48 0.57 0.57 0.54
0.01 0.01 0.00 0.00 0.00 0.00 0.01 0.03 0.14 0.40 0.86 1.09 1.04 0.75 0.77 0.77 0.66 0.64 0.52 0.44 0.58 0.66
0.01 0.01 0.01 0.00 0.00 0.00 0.00 0.01 0.03 0.07 0.35 0.68 0.68 0.82 0.81 0.79 0.71 0.72 0.61 0.45 0.39 0.36
0.01 0.01 0.01 0.00 0.00 0.00 0.00 0.01 0.01 0.02 0.04 0.26 0.47 0.58 0.75 0.74 0.80 0.76 0.60 0.44 0.35 0.23
0.01 0.01 0.02 0.01 0.01 0.01 0.01 0.01 0.01 0.02 0.03 0.07 0.21 0.49 0.49 0.59 0.48 0.47 0.39 0.27 0.29 0.36
0.01 0.01 0.02 0.02 0.01 0.01 0.01 0.02 0.01 0.02 0.02 0.05 0.08 0.25 0.34 0.46 0.33 0.28 0.34 0.34 0.26 0.27
0.00 0.01 0.01 0.02 0.02 0.02 0.03 0.03 0.03 0.04 0.03 0.04 0.10 0.29 0.25 0.41 0.26 0.20 0.32 0.31 0.27 0.28
0.00 0.00 0.01 0.02 0.04 0.04 0.06 0.06 0.06 0.08 0.11 0.10 0.19 0.28 0.19 0.21 0.12 0.16 0.18 0.21 0.23 0.27
0.00 0.00 0.02 0.05 0.08 0.08 0.10 0.13 0.11 0.13 0.15 0.14 0.17 0.34 0.22 0.14 0.04 0.12 0.19 0.24 0.34 0.40
0.06 0.02 0.02 0.03 0.06 0.09 0.10 0.13 0.17 0.20 0.20 0.25 0.12 0.30 0.23 0.18 0.05 0.16 0.27 0.34 0.49 0.58
0.12 0.08 0.03 0.05 0.08 0.12 0.15 0.15 0.17 0.17 0.14 0.13 0.16 0.28 0.28 0.22 0.06 0.09 0.15 0.22 0.27 0.35

GFSNIL_prec_precacc24_120.txt.gz
Total_Precipitation_Accumulation
0.01 0.00 0.00 0.02 0.07 0.19 0.43 0.99 0.97 0.66 0.37 0.47 0.62 0.49 0.40 0.43 0.39 0.31 0.28 0.31 0.19 0.14
0.03 0.00 0.00 0.01 0.03 0.19 0.29 0.60 0.87 0.95 0.77 0.54 0.52 0.60 0.52 0.48 0.50 0.46 0.43 0.43 0.43 0.32
0.01 0.00 0.00 0.00 0.01 0.06 0.15 0.37 0.61 0.91 1.22 1.10 0.69 0.60 0.68 0.65 0.54 0.59 0.59 0.56 0.53 0.49
0.06 0.03 0.00 0.00 0.00 0.01 0.03 0.15 0.39 0.72 1.22 1.58 1.14 0.83 0.79 0.73 0.57 0.45 0.48 0.56 0.53 0.46
0.07 0.02 0.00 0.00 0.00 0.00 0.01 0.04 0.15 0.41 0.92 1.32 1.57 1.16 0.90 0.81 0.67 0.61 0.44 0.32 0.41 0.42
0.04 0.01 0.01 0.00 0.00 0.00 0.00 0.01 0.03 0.07 0.36 0.72 0.92 1.29 1.11 0.86 0.75 0.78 0.67 0.48 0.35 0.34
0.03 0.02 0.01 0.00 0.00 0.00 0.00 0.01 0.01 0.02 0.05 0.28 0.58 0.84 0.97 0.97 1.04 0.99 0.92 0.78 0.66 0.46
0.02 0.02 0.02 0.01 0.00 0.00 0.00 0.00 0.01 0.01 0.02 0.07 0.27 0.69 0.75 0.87 0.80 0.93 0.84 0.73 0.71 0.72
0.02 0.02 0.02 0.02 0.01 0.01 0.01 0.01 0.01 0.01 0.01 0.04 0.08 0.38 0.53 0.65 0.59 0.62 0.72 0.67 0.49 0.44
0.01 0.01 0.01 0.02 0.02 0.02 0.03 0.03 0.03 0.04 0.03 0.04 0.09 0.24 0.30 0.54 0.45 0.38 0.53 0.63 0.48 0.36
0.00 0.01 0.01 0.02 0.02 0.03 0.05 0.05 0.06 0.08 0.10 0.09 0.18 0.26 0.21 0.31 0.37 0.26 0.28 0.35 0.42 0.38
0.00 0.00 0.01 0.01 0.03 0.06 0.08 0.11 0.10 0.12 0.14 0.13 0.16 0.34 0.25 0.17 0.13 0.20 0.29 0.29 0.38 0.43
0.06 0.01 0.00 0.02 0.05 0.08 0.10 0.12 0.17 0.18 0.19 0.26 0.13 0.31 0.26 0.20 0.06 0.18 0.28 0.36 0.51 0.55
0.12 0.07 0.03 0.05 0.08 0.11 0.15 0.14 0.17 0.17 0.14 0.13 0.17 0.29 0.30 0.24 0.06 0.08 0.14 0.20 0.25 0.33

GFSNIL_prec_precacc24_123.txt.gz
Total_Precipitation_Accumulation
0.02 0.02 0.01 0.02 0.07 0.19 0.43 0.99 0.97 0.66 0.37 0.48 0.73 0.74 0.67 0.60 0.54 0.35 0.29 0.31 0.19 0.12
0.07 0.02 0.00 0.01 0.04 0.20 0.29 0.61 0.87 0.95 0.77 0.54 0.57 0.84 0.81 0.69 0.67 0.54 0.45 0.44 0.41 0.29
0.06 0.03 0.00 0.01 0.01 0.07 0.16 0.38 0.62 0.93 1.23 1.10 0.70 0.64 0.92 0.87 0.68 0.65 0.61 0.55 0.53 0.48
0.15 0.12 0.04 0.01 0.01 0.02 0.04 0.16 0.40 0.74 1.26 1.66 1.19 0.84 0.81 0.85 0.71 0.51 0.50 0.56 0.53 0.45
0.13 0.06 0.02 0.01 0.01 0.01 0.02 0.05 0.16 0.42 0.97 1.40 1.69 1.39 1.02 0.85 0.77 0.69 0.47 0.33 0.40 0.41
0.07 0.03 0.02 0.01 0.01 0.01 0.01 0.02 0.04 0.08 0.38 0.75 0.99 1.46 1.34 1.02 0.80 0.81 0.71 0.49 0.35 0.33
0.07 0.04 0.04 0.01 0.01 0.01 0.00 0.01 0.02 0.02 0.06 0.29 0.59 0.91 1.14 1.20 1.22 1.05 0.94 0.82 0.69 0.47
0.06 0.05 0.03 0.03 0.01 0.01 0.01 0.01 0.01 0.02 0.02 0.07 0.28 0.70 0.80 0.97 0.98 1.14 1.02 0.88 0.82 0.78
0.08 0.06 0.04 0.04 0.02 0.02 0.02 0.02 0.01 0.01 0.01 0.04 0.07 0.38 0.62 0.82 0.81 0.88 0.96 0.84 0.68 0.65
0.07 0.05 0.04 0.04 0.03 0.03 0.04 0.03 0.03 0.04 0.03 0.03 0.08 0.21 0.31 0.63 0.58 0.60 0.80 0.90 0.76 0.64
0.06 0.04 0.03 0.03 0.03 0.03 0.04 0.05 0.05 0.06 0.07 0.04 0.12 0.19 0.17 0.29 0.43 0.40 0.49 0.55 0.63 0.62
0.08 0.03 0.02 0.02 0.03 0.04 0.06 0.09 0.07 0.08 0.10 0.09 0.13 0.31 0.23 0.16 0.15 0.27 0.39 0.39 0.53 0.61
0.16 0.04 0.01 0.02 0.04 0.07 0.07 0.09 0.15 0.16 0.17 0.23 0.11 0.30 0.26 0.19 0.06 0.19 0.32 0.40 0.57 0.65
0.23 0.10 0.03 0.04 0.07 0.10 0.13 0.12 0.15 0.16 0.13 0.13 0.16 0.28 0.31 0.25 0.06 0.09 0.15 0.22 0.27 0.34

GFSNIL_prec_precacc24_126.txt.gz
Total_Precipitation_Accumulation
0.03 0.03 0.02 0.04 0.07 0.18 0.39 0.96 0.96 0.66 0.36 0.46 0.71 0.73 0.66 0.62 0.70 0.51 0.37 0.33 0.20 0.11
0.07 0.03 0.02 0.02 0.04 0.20 0.29 0.60 0.87 0.95 0.77 0.54 0.57 0.84 0.86 0.79 0.85 0.76 0.64 0.52 0.44 0.29
0.06 0.04 0.02 0.02 0.03 0.08 0.16 0.38 0.60 0.93 1.23 1.10 0.70 0.65 0.97 1.03 0.96 0.92 0.83 0.72 0.64 0.52
0.15 0.13 0.05 0.03 0.02 0.03 0.05 0.16 0.40 0.74 1.26 1.66 1.19 0.85 0.82 0.93 0.94 0.80 0.74 0.83 0.75 0.56
0.13 0.07 0.04 0.02 0.03 0.04 0.03 0.06 0.16 0.42 0.97 1.41 1.69 1.39 1.03 0.87 0.84 0.87 0.66 0.51 0.60 0.55
0.08 0.04 0.06 0.03 0.03 0.02 0.02 0.03 0.06 0.09 0.39 0.76 1.00 1.46 1.35 1.04 0.83 0.89 0.85 0.64 0.47 0.42
0.08 0.06 0.07 0.05 0.03 0.03 0.02 0.02 0.03 0.03 0.07 0.30 0.60 0.91 1.15 1.23 1.27 1.09 0.99 0.90 0.76 0.51
0.06 0.07 0.09 0.06 0.04 0.03 0.04 0.01 0.02 0.03 0.03 0.07 0.28 0.73 0.81 0.97 0.97 1.17 1.07 0.93 0.88 0.79
0.10 0.10 0.10 0.09 0.05 0.03 0.04 0.02 0.01 0.01 0.01 0.03 0.07 0.40 0.65 0.84 0.82 0.92 1.13 0.94 0.69 0.65
0.09 0.11 0.10 0.09 0.07 0.05 0.05 0.04 0.03 0.03 0.02 0.02 0.07 0.20 0.31 0.63 0.62 0.68 0.97 1.06 0.95 0.79
0.08 0.08 0.11 0.11 0.06 0.05 0.04 0.05 0.05 0.06 0.06 0.03 0.10 0.17 0.16 0.26 0.43 0.45 0.64 0.79 0.90 0.92
0.10 0.09 0.14 0.17 0.06 0.05 0.06 0.08 0.06 0.06 0.08 0.06 0.09 0.26 0.20 0.14 0.14 0.26 0.43 0.54 0.77 0.88
0.23 0.17 0.20 0.18 0.07 0.07 0.07 0.09 0.12 0.12 0.13 0.18 0.09 0.25 0.25 0.18 0.05 0.18 0.31 0.42 0.63 0.78
0.32 0.31 0.23 0.16 0.09 0.08 0.11 0.11 0.14 0.15 0.12 0.11 0.15 0.24 0.27 0.24 0.06 0.09 0.15 0.22 0.27 0.37

GFSNIL_prec_precacc24_129.txt.gz
Total_Precipitation_Accumulation
0.03 0.04 0.04 0.06 0.07 0.16 0.32 0.82 0.79 0.55 0.28 0.38 0.65 0.68 0.63 0.60 0.67 0.60 0.53 0.55 0.37 0.15
0.08 0.04 0.04 0.05 0.07 0.21 0.29 0.58 0.83 0.89 0.73 0.51 0.54 0.83 0.85 0.79 0.85 0.81 0.81 0.76 0.69 0.36
0.07 0.04 0.03 0.05 0.07 0.11 0.17 0.39 0.62 0.94 1.22 1.11 0.70 0.64 0.97 1.03 0.96 0.97 0.97 1.05 0.95 0.64
0.16 0.13 0.05 0.07 0.07 0.07 0.06 0.17 0.44 0.76 1.27 1.66 1.19 0.85 0.82 0.93 0.95 0.86 0.84 1.02 0.96 0.72
0.14 0.08 0.04 0.05 0.09 0.08 0.07 0.08 0.20 0.46 0.98 1.41 1.69 1.39 1.03 0.87 0.85 0.89 0.73 0.69 0.89 0.76
0.08 0.04 0.06 0.04 0.07 0.08 0.11 0.08 0.09 0.12 0.40 0.76 1.00 1.46 1.35 1.04 0.83 0.90 0.87 0.70 0.64 0.68
0.08 0.07 0.08 0.06 0.06 0.09 0.12 0.08 0.08 0.08 0.11 0.30 0.60 0.91 1.15 1.22 1.27 1.07 0.96 0.89 0.81 0.68
0.06 0.07 0.11 0.10 0.08 0.07 0.15 0.11 0.07 0.08 0.07 0.08 0.29 0.73 0.81 0.97 0.96 1.16 1.06 0.93 0.89 0.85
0.10 0.10 0.12 0.11 0.10 0.07 0.11 0.09 0.04 0.03 0.03 0.07 0.11 0.43 0.65 0.84 0.82 0.91 1.12 0.93 0.72 0.74
0.09 0.11 0.11 0.11 0.12 0.12 0.11 0.07 0.04 0.04 0.02 0.02 0.07 0.20 0.32 0.65 0.62 0.69 0.97 1.07 1.05 1.00
0.08 0.08 0.12 0.17 0.16 0.15 0.14 0.07 0.05 0.06 0.06 0.03 0.09 0.16 0.17 0.26 0.43 0.42 0.61 0.80 0.92 1.08
0.10 0.09 0.15 0.23 0.27 0.16 0.14 0.11 0.06 0.05 0.06 0.05 0.07 0.22 0.19 0.13 0.14 0.23 0.39 0.49 0.71 0.90
0.23 0.17 0.20 0.22 0.18 0.17 0.17 0.10 0.11 0.10 0.10 0.14 0.06 0.18 0.20 0.15 0.04 0.14 0.21 0.29 0.53 0.83
0.31 0.31 0.25 0.19 0.19 0.21 0.21 0.12 0.12 0.12 0.09 0.09 0.12 0.18 0.23 0.22 0.05 0.07 0.12 0.20 0.27 0.38

GFSNIL_prec_precacc24_132.txt.gz
Total_Precipitation_Accumulation
0.03 0.05 0.05 0.08 0.07 0.11 0.20 0.53 0.49 0.29 0.19 0.34 0.68 0.66 0.58 0.50 0.60 0.56 0.50 0.54 0.39 0.25
0.08 0.04 0.04 0.06 0.09 0.14 0.24 0.42 0.56 0.56 0.44 0.32 0.47 0.76 0.79 0.73 0.81 0.80 0.81 0.76 0.70 0.47
0.07 0.04 0.04 0.05 0.08 0.11 0.17 0.32 0.53 0.68 0.93 0.88 0.58 0.59 0.93 1.00 0.94 0.97 0.98 1.09 1.08 0.89
0.16 0.13 0.06 0.07 0.08 0.10 0.14 0.23 0.44 0.71 1.04 1.47 1.11 0.82 0.80 0.92 0.95 0.86 0.86 1.04 1.09 0.98
0.14 0.08 0.05 0.05 0.09 0.11 0.13 0.16 0.29 0.51 0.96 1.37 1.69 1.40 1.04 0.89 0.85 0.89 0.73 0.70 0.92 0.88
0.08 0.04 0.06 0.04 0.07 0.10 0.16 0.19 0.19 0.20 0.44 0.77 1.01 1.46 1.36 1.04 0.84 0.90 0.87 0.71 0.65 0.75
0.08 0.07 0.08 0.06 0.06 0.10 0.16 0.19 0.18 0.13 0.15 0.35 0.61 0.91 1.15 1.23 1.27 1.07 0.96 0.90 0.81 0.69
0.06 0.07 0.11 0.10 0.08 0.07 0.16 0.20 0.18 0.18 0.16 0.15 0.31 0.74 0.81 0.97 0.96 1.15 1.06 0.93 0.89 0.85
0.10 0.10 0.12 0.11 0.10 0.07 0.12 0.17 0.23 0.12 0.09 0.10 0.13 0.45 0.65 0.84 0.82 0.91 1.12 0.92 0.71 0.71
0.09 0.11 0.11 0.11 0.12 0.12 0.12 0.11 0.16 0.30 0.21 0.05 0.08 0.21 0.33 0.65 0.62 0.67 0.95 1.05 1.02 0.96
0.08 0.08 0.12 0.17 0.17 0.17 0.15 0.11 0.10 0.13 0.31 0.20 0.08 0.14 0.15 0.26 0.42 0.39 0.58 0.78 0.91 1.06
0.10 0.09 0.15 0.23 0.27 0.21 0.18 0.22 0.13 0.06 0.06 0.04 0.04 0.19 0.17 0.12 0.14 0.23 0.35 0.43 0.61 0.82
0.23 0.17 0.20 0.22 0.17 0.17 0.22 0.17 0.29 0.31 0.14 0.11 0.04 0.15 0.19 0.15 0.04 0.11 0.14 0.19 0.39 0.70
0.29 0.30 0.25 0.19 0.17 0.19 0.21 0.26 0.25 0.26 0.32 0.19 0.09 0.11 0.18 0.19 0.04 0.05 0.09 0.13 0.19 0.34

GFSNIL_prec_precacc24_135.txt.gz
Total_Precipitation_Accumulation
0.03 0.05 0.05 0.08 0.06 0.05 0.09 0.16 0.22 0.16 0.15 0.31 0.60 0.59 0.52 0.43 0.48 0.45 0.40 0.40 0.33 0.22
0.08 0.04 0.04 0.06 0.08 0.07 0.07 0.19 0.32 0.32 0.27 0.20 0.33 0.57 0.60 0.51 0.53 0.57 0.61 0.57 0.55 0.38
0.07 0.04 0.04 0.05 0.08 0.09 0.08 0.16 0.28 0.44 0.71 0.67 0.35 0.35 0.72 0.78 0.74 0.71 0.77 0.96 0.99 0.84
0.16 0.13 0.06 0.07 0.08 0.10 0.12 0.15 0.21 0.42 0.77 1.21 0.91 0.62 0.56 0.72 0.83 0.75 0.72 0.96 1.06 0.98
0.14 0.08 0.05 0.05 0.09 0.11 0.13 0.16 0.23 0.38 0.69 0.97 1.34 1.18 0.92 0.77 0.77 0.83 0.68 0.67 0.92 0.90
0.08 0.04 0.06 0.04 0.07 0.10 0.16 0.19 0.20 0.24 0.46 0.68 0.83 1.26 1.27 1.01 0.85 0.91 0.88 0.71 0.65 0.76
0.08 0.07 0.08 0.06 0.06 0.10 0.16 0.20 0.19 0.16 0.21 0.40 0.63 0.89 1.14 1.23 1.27 1.08 0.96 0.90 0.81 0.69
0.06 0.07 0.11 0.10 0.08 0.07 0.16 0.20 0.18 0.20 0.20 0.18 0.35 0.78 0.82 0.97 0.96 1.16 1.07 0.93 0.89 0.85
0.10 0.10 0.12 0.11 0.10 0.07 0.12 0.17 0.23 0.13 0.12 0.14 0.16 0.47 0.68 0.85 0.82 0.91 1.12 0.92 0.70 0.70
0.09 0.11 0.11 0.11 0.12 0.12 0.12 0.11 0.16 0.31 0.23 0.09 0.18 0.33 0.38 0.67 0.62 0.66 0.94 1.03 1.00 0.95
0.08 0.08 0.12 0.17 0.17 0.17 0.15 0.11 0.10 0.13 0.33 0.61 0.38 0.25 0.36 0.37 0.42 0.38 0.56 0.76 0.88 1.02
0.10 0.09 0.15 0.23 0.27 0.21 0.18 0.21 0.13 0.06 0.08 0.18 0.44 0.52 0.28 0.18 0.14 0.21 0.32 0.40 0.59 0.79
0.17 0.16 0.20 0.22 0.17 0.16 0.21 0.16 0.27 0.30 0.15 0.18 0.12 0.31 0.35 0.19 0.05 0.11 0.12 0.16 0.33 0.61
0.22 0.24 0.23 0.19 0.17 0.19 0.19 0.25 0.23 0.24 0.37 0.36 0.20 0.17 0.27 0.32 0.05 0.03 0.06 0.08 0.12 0.24

GFSNIL_prec_precacc24_138.txt.gz
Total_Precipitation_Accumulation
0.03 0.05 0.05 0.08 0.05 0.05 0.09 0.14 0.14 0.16 0.17 0.35 0.65 0.64 0.55 0.43 0.49 0.47 0.44 0.41 0.33 0.22
0.08 0.04 0.04 0.06 0.08 0.07 0.06 0.12 0.16 0.13 0.10 0.12 0.34 0.58 0.60 0.47 0.49 0.52 0.54 0.47 0.42 0.30
0.07 0.04 0.04 0.05 0.08 0.09 0.08 0.09 0.14 0.22 0.37 0.39 0.23 0.21 0.53 0.53 0.55 0.52 0.52 0.69 0.69 0.59
0.16 0.13 0.06 0.07 0.08 0.10 0.11 0.14 0.14 0.21 0.51 0.88 0.69 0.42 0.24 0.38 0.54 0.51 0.46 0.63 0.77 0.79
0.13 0.07 0.04 0.05 0.09 0.11 0.12 0.15 0.19 0.20 0.38 0.72 1.05 0.96 0.63 0.42 0.42 0.53 0.48 0.51 0.72 0.70
0.07 0.04 0.06 0.04 0.07 0.10 0.16 0.19 0.17 0.19 0.31 0.39 0.60 0.96 0.94 0.72 0.58 0.68 0.70 0.55 0.56 0.70
0.07 0.06 0.07 0.05 0.06 0.10 0.16 0.19 0.19 0.15 0.20 0.31 0.46 0.70 0.78 0.98 1.07 0.93 0.92 0.89 0.82 0.71
0.06 0.06 0.10 0.09 0.08 0.07 0.16 0.20 0.18 0.19 0.19 0.16 0.31 0.64 0.69 0.87 0.94 1.11 1.05 0.93 0.88 0.85
0.09 0.09 0.11 0.10 0.09 0.07 0.12 0.17 0.23 0.13 0.11 0.13 0.15 0.43 0.63 0.85 0.88 0.94 1.12 0.92 0.71 0.70
0.09 0.10 0.10 0.10 0.12 0.12 0.11 0.09 0.16 0.30 0.22 0.09 0.18 0.32 0.38 0.73 0.71 0.74 0.99 1.04 1.00 0.94
0.08 0.08 0.11 0.16 0.17 0.17 0.14 0.09 0.08 0.11 0.31 0.60 0.38 0.26 0.38 0.57 0.60 0.48 0.62 0.78 0.87 1.01
0.10 0.09 0.15 0.23 0.27 0.21 0.17 0.20 0.12 0.05 0.06 0.18 0.44 0.52 0.28 0.28 0.46 0.46 0.46 0.58 0.62 0.78
0.17 0.16 0.20 0.22 0.17 0.16 0.21 0.16 0.26 0.29 0.14 0.17 0.11 0.30 0.34 0.20 0.12 0.26 0.27 0.22 0.32 0.56
0.20 0.24 0.23 0.19 0.17 0.18 0.18 0.24 0.22 0.23 0.36 0.34 0.18 0.15 0.26 0.35 0.13 0.12 0.12 0.08 0.08 0.15

GFSNIL_prec_precacc24_141.txt.gz
Total_Precipitation_Accumulation
0.05 0.05 0.08 0.20 0.12 0.05 0.06 0.09 0.13 0.16 0.16 0.33 0.62 0.64 0.56 0.45 0.51 0.48 0.46 0.44 0.41 0.30
0.08 0.05 0.04 0.06 0.08 0.07 0.05 0.10 0.11 0.09 0.09 0.12 0.33 0.58 0.61 0.47 0.51 0.54 0.55 0.49 0.45 0.33
0.07 0.04 0.04 0.05 0.08 0.09 0.08 0.08 0.11 0.16 0.14 0.10 0.14 0.21 0.55 0.54 0.57 0.54 0.52 0.66 0.65 0.53
0.16 0.13 0.06 0.07 0.08 0.10 0.11 0.14 0.14 0.16 0.27 0.41 0.34 0.21 0.15 0.31 0.49 0.49 0.45 0.58 0.63 0.62
0.13 0.07 0.04 0.05 0.09 0.11 0.12 0.15 0.19 0.18 0.20 0.37 0.72 0.74 0.36 0.20 0.25 0.33 0.34 0.43 0.62 0.56
0.07 0.03 0.05 0.04 0.07 0.10 0.16 0.18 0.17 0.18 0.18 0.16 0.38 0.72 0.65 0.42 0.27 0.28 0.33 0.36 0.44 0.60
0.07 0.05 0.07 0.05 0.06 0.10 0.16 0.19 0.18 0.14 0.17 0.16 0.18 0.41 0.48 0.58 0.56 0.38 0.47 0.61 0.64 0.62
0.05 0.06 0.09 0.09 0.08 0.07 0.16 0.20 0.17 0.18 0.18 0.14 0.18 0.33 0.40 0.45 0.63 0.88 0.90 0.85 0.83 0.77
0.08 0.09 0.10 0.09 0.09 0.06 0.11 0.17 0.23 0.13 0.11 0.12 0.11 0.29 0.43 0.52 0.64 0.83 1.02 0.88 0.69 0.68
0.09 0.10 0.10 0.09 0.10 0.10 0.09 0.08 0.14 0.28 0.21 0.08 0.13 0.23 0.25 0.50 0.56 0.69 0.92 1.04 1.00 0.93
0.08 0.08 0.11 0.15 0.15 0.15 0.12 0.08 0.07 0.09 0.29 0.59 0.35 0.22 0.33 0.51 0.55 0.47 0.65 0.85 1.09 1.30
0.10 0.09 0.14 0.22 0.25 0.19 0.15 0.17 0.10 0.04 0.05 0.16 0.43 0.48 0.24 0.26 0.46 0.46 0.46 0.61 0.75 0.94
0.17 0.16 0.20 0.22 0.16 0.15 0.20 0.14 0.23 0.27 0.12 0.14 0.10 0.27 0.30 0.16 0.11 0.24 0.25 0.22 0.33 0.61
0.20 0.24 0.23 0.19 0.16 0.17 0.17 0.24 0.20 0.21 0.34 0.31 0.16 0.13 0.23 0.31 0.12 0.11 0.12 0.08 0.07 0.12

GFSNIL_prec_precacc24_144.txt.gz
Total_Precipitation_Accumulation
0.18 0.19 0.14 0.21 0.13 0.06 0.08 0.15 0.29 0.42 0.45 0.39 0.40 0.49 0.52 0.47 0.53 0.51 0.49 0.46 0.42 0.31
0.16 0.18 0.15 0.11 0.10 0.08 0.05 0.05 0.09 0.14 0.14 0.16 0.29 0.45 0.58 0.49 0.52 0.56 0.57 0.51 0.47 0.34
0.09 0.10 0.09 0.07 0.09 0.10 0.07 0.05 0.05 0.08 0.08 0.11 0.16 0.20 0.50 0.54 0.60 0.58 0.55 0.69 0.68 0.54
0.10 0.11 0.07 0.07 0.08 0.10 0.11 0.13 0.11 0.07 0.10 0.16 0.18 0.16 0.17 0.33 0.51 0.54 0.50 0.63 0.68 0.65
0.07 0.06 0.04 0.05 0.09 0.10 0.12 0.14 0.18 0.17 0.14 0.13 0.18 0.33 0.26 0.18 0.26 0.36 0.38 0.47 0.65 0.57
0.12 0.04 0.05 0.04 0.07 0.10 0.15 0.18 0.17 0.18 0.17 0.12 0.15 0.25 0.32 0.27 0.20 0.23 0.30 0.31 0.42 0.55
0.06 0.06 0.07 0.05 0.06 0.10 0.16 0.19 0.18 0.14 0.17 0.14 0.07 0.15 0.26 0.35 0.35 0.18 0.21 0.31 0.35 0.40
0.05 0.05 0.09 0.08 0.08 0.07 0.16 0.19 0.17 0.18 0.18 0.13 0.10 0.12 0.13 0.17 0.31 0.42 0.47 0.44 0.45 0.43
0.08 0.08 0.10 0.09 0.09 0.06 0.11 0.16 0.23 0.13 0.11 0.11 0.10 0.14 0.22 0.31 0.37 0.47 0.63 0.57 0.54 0.59
0.08 0.09 0.09 0.09 0.10 0.10 0.09 0.08 0.14 0.28 0.21 0.08 0.13 0.21 0.17 0.33 0.34 0.50 0.70 0.70 0.81 0.99
0.07 0.07 0.11 0.15 0.15 0.15 0.12 0.07 0.06 0.09 0.29 0.59 0.34 0.20 0.30 0.40 0.29 0.36 0.55 0.70 0.91 1.23
0.10 0.09 0.14 0.22 0.25 0.19 0.15 0.17 0.10 0.04 0.04 0.16 0.42 0.44 0.20 0.24 0.37 0.38 0.37 0.56 0.71 0.92
0.17 0.16 0.20 0.21 0.16 0.14 0.19 0.14 0.22 0.27 0.12 0.12 0.10 0.24 0.26 0.15 0.10 0.22 0.23 0.19 0.30 0.61
0.20 0.24 0.23 0.18 0.16 0.16 0.17 0.23 0.20 0.20 0.34 0.31 0.15 0.12 0.21 0.29 0.12 0.10 0.12 0.08 0.06 0.11

GFSNIL_prec_precacc24_150.txt.gz
Total_Precipitation_Accumulation
0.18 0.22 0.21 0.27 0.24 0.21 0.26 0.36 0.62 0.75 0.75 0.94 1.16 1.17 1.32 1.14 0.85 0.85 0.62 0.54 0.47 0.35
0.21 0.29 0.24 0.23 0.21 0.19 0.16 0.13 0.22 0.36 0.35 0.44 0.66 0.78 0.93 0.82 0.61 0.62 0.62 0.51 0.49 0.38
0.15 0.19 0.19 0.20 0.20 0.22 0.19 0.16 0.16 0.14 0.18 0.26 0.32 0.35 0.41 0.36 0.34 0.38 0.38 0.59 0.67 0.55
0.16 0.17 0.18 0.20 0.18 0.18 0.21 0.27 0.22 0.14 0.12 0.15 0.21 0.27 0.26 0.23 0.22 0.30 0.35 0.52 0.62 0.66
0.27 0.25 0.19 0.21 0.26 0.24 0.23 0.26 0.28 0.22 0.12 0.09 0.11 0.16 0.20 0.22 0.18 0.19 0.24 0.39 0.60 0.54
0.53 0.35 0.29 0.26 0.24 0.33 0.33 0.25 0.21 0.20 0.17 0.10 0.07 0.09 0.08 0.10 0.13 0.14 0.16 0.22 0.38 0.51
0.32 0.48 0.52 0.37 0.28 0.26 0.29 0.23 0.18 0.14 0.16 0.13 0.06 0.07 0.08 0.10 0.11 0.08 0.11 0.16 0.23 0.36
0.07 0.10 0.19 0.40 0.47 0.33 0.24 0.20 0.17 0.17 0.17 0.12 0.08 0.08 0.07 0.06 0.09 0.14 0.19 0.15 0.13 0.19
0.01 0.00 0.02 0.04 0.12 0.25 0.31 0.27 0.26 0.13 0.11 0.12 0.10 0.11 0.09 0.10 0.09 0.10 0.11 0.15 0.18 0.24
0.01 0.00 0.01 0.02 0.06 0.07 0.08 0.12 0.21 0.32 0.22 0.08 0.12 0.19 0.12 0.16 0.13 0.12 0.15 0.17 0.25 0.49
0.00 0.00 0.01 0.06 0.11 0.13 0.11 0.07 0.06 0.09 0.29 0.59 0.33 0.18 0.28 0.38 0.20 0.14 0.14 0.20 0.38 0.65
0.00 0.00 0.00 0.06 0.22 0.18 0.14 0.16 0.09 0.04 0.04 0.16 0.42 0.41 0.18 0.22 0.35 0.30 0.19 0.29 0.30 0.44
0.00 0.00 0.01 0.05 0.12 0.13 0.18 0.13 0.21 0.26 0.11 0.12 0.10 0.22 0.23 0.13 0.10 0.20 0.19 0.12 0.16 0.35
0.00 0.00 0.02 0.05 0.13 0.16 0.16 0.22 0.18 0.19 0.33 0.31 0.14 0.10 0.17 0.25 0.12 0.10 0.11 0.07 0.03 0.06

GFSNIL_prec_precacc24_156.txt.gz
Total_Precipitation_Accumulation
0.18 0.20 0.18 0.23 0.20 0.20 0.26 0.36 0.63 0.75 0.81 1.03 1.18 1.29 1.52 1.41 1.11 1.00 0.76 0.62 0.66 0.61
0.20 0.28 0.23 0.19 0.16 0.17 0.15 0.14 0.22 0.39 0.39 0.49 0.68 0.89 1.14 1.05 0.73 0.68 0.62 0.53 0.42 0.39
0.14 0.19 0.19 0.19 0.16 0.18 0.18 0.16 0.17 0.17 0.23 0.30 0.33 0.39 0.48 0.47 0.47 0.40 0.27 0.28 0.31 0.27
0.16 0.18 0.20 0.20 0.18 0.17 0.18 0.24 0.22 0.21 0.21 0.22 0.27 0.34 0.34 0.34 0.38 0.40 0.33 0.35 0.31 0.30
0.27 0.27 0.25 0.26 0.27 0.25 0.25 0.29 0.30 0.34 0.36 0.33 0.32 0.36 0.38 0.31 0.26 0.25 0.24 0.27 0.36 0.28
0.54 0.38 0.35 0.37 0.33 0.40 0.40 0.35 0.34 0.37 0.40 0.38 0.41 0.36 0.31 0.27 0.22 0.20 0.17 0.19 0.24 0.21
0.34 0.50 0.58 0.49 0.44 0.39 0.40 0.43 0.37 0.42 0.54 0.38 0.29 0.38 0.30 0.33 0.23 0.14 0.15 0.16 0.18 0.21
0.09 0.12 0.22 0.48 0.63 0.56 0.41 0.33 0.36 0.33 0.37 0.40 0.42 0.40 0.45 0.35 0.35 0.34 0.28 0.17 0.12 0.13
0.03 0.03 0.03 0.07 0.14 0.34 0.49 0.46 0.28 0.20 0.20 0.19 0.26 0.35 0.38 0.46 0.36 0.33 0.40 0.30 0.19 0.14
0.01 0.03 0.02 0.03 0.02 0.03 0.07 0.17 0.27 0.26 0.19 0.13 0.19 0.26 0.21 0.29 0.32 0.24 0.18 0.20 0.13 0.20
0.00 0.00 0.00 0.00 0.00 0.00 0.00 0.01 0.01 0.04 0.15 0.54 0.39 0.19 0.27 0.35 0.22 0.21 0.16 0.13 0.25 0.35
0.00 0.00 0.00 0.00 0.00 0.00 0.00 0.00 0.00 0.00 0.02 0.16 0.44 0.44 0.17 0.19 0.33 0.28 0.18 0.26 0.23 0.22
0.00 0.00 0.00 0.00 0.00 0.00 0.00 0.00 0.00 0.00 0.02 0.10 0.09 0.22 0.23 0.11 0.10 0.18 0.18 0.11 0.11 0.17
0.01 0.00 0.00 0.00 0.00 0.00 0.00 0.00 0.00 0.00 0.07 0.18 0.13 0.09 0.16 0.24 0.12 0.11 0.11 0.06 0.03 0.05